KB9ZI Weather Reports


time (UTC)temp
C
wind
direction
speed
KPH
gust
KPH
rain 1hr
cm
rain 24hr
cm
rain mn
cm
humidity
%
barometer
mb
20240527183810 20 300 0.0 0.0 0.00 0.25 0.25 75 1008.8
20240527183740 20 80 0.0 0.0 0.00 0.25 0.25 75 1008.8
20240527183507 20 262 0.0 0.0 0.00 0.25 0.25 74 1008.8
20240527183444 20 85 0.0 0.0 0.00 0.25 0.25 73 1008.8
20240527183417 20 262 0.0 0.0 0.00 0.25 0.25 73 1008.8
20240527183343 20 262 0.0 0.0 0.00 0.25 0.25 72 1008.8
20240527183315 20 262 0.0 0.0 0.00 0.25 0.25 71 1008.8
20240527183238 20 262 0.0 0.0 0.00 0.25 0.25 71 1008.8
20240527182929 20 262 0.0 0.0 0.00 0.25 0.25 76 1008.8
20240527182824 20 265 0.0 0.0 0.00 0.25 0.25 77 1008.8
20240527182727 20 226 0.0 0.0 0.00 0.25 0.25 77 1009.0
20240527182626 20 223 0.0 0.0 0.00 0.25 0.25 77 1009.0
20240527182517 20 224 0.0 0.0 0.00 0.25 0.25 78 1008.8
20240527182446 19 275 0.0 0.0 0.00 0.25 0.25 79 1009.2
20240527182434 20 178 0.0 0.0 0.00 0.25 0.25 77 1008.8
20240527182405 20 176 0.0 0.0 0.00 0.25 0.25 77 1009.0
20240527182334 19 189 0.0 0.0 0.00 0.25 0.25 77 1009.0
20240527182307 19 226 0.0 0.0 0.00 0.25 0.25 79 1009.1
20240527182237 19 275 0.0 0.0 0.00 0.25 0.25 79 1009.2
20240527181926 19 275 0.0 0.0 0.00 0.25 0.25 81 1009.2
20240527181826 19 264 0.0 0.0 0.00 0.25 0.25 82 1009.1
20240527181727 19 262 0.0 0.0 0.00 0.25 0.25 83 1009.2
20240527181627 19 262 0.0 0.0 0.00 0.25 0.25 83 1009.3
20240527181531 19 261 0.0 0.0 0.00 0.25 0.25 83 1009.2
20240527181515 19 261 0.0 0.0 0.00 0.25 0.25 83 1009.3
20240527181504 18 269 0.0 0.0 0.00 0.25 0.25 84 1009.4
20240527181441 19 252 0.0 0.0 0.00 0.25 0.25 83 1009.3
20240527181413 18 252 0.0 0.0 0.00 0.25 0.25 82 1009.3
20240527181344 18 269 0.0 0.0 0.00 0.25 0.25 82 1009.2
20240527181311 18 269 0.0 0.0 0.00 0.25 0.25 83 1009.3
20240527181237 18 269 0.0 0.0 0.00 0.25 0.25 84 1009.4
20240527180928 18 274 0.0 0.0 0.00 0.25 0.25 83 1009.4
20240527180825 18 271 0.0 0.0 0.00 0.25 0.25 82 1009.4
20240527180729 18 269 0.0 0.0 0.00 0.25 0.25 81 1009.4
20240527180627 18 269 0.0 0.0 0.00 0.25 0.25 81 1009.5
20240527180529 18 274 0.0 0.0 0.00 0.25 0.25 82 1009.5
20240527180515 18 268 0.0 0.0 0.00 0.25 0.25 82 1009.5
20240527180456 18 224 0.0 0.0 0.00 0.25 0.25 84 1009.5
20240527180439 18 250 0.0 0.0 0.00 0.25 0.25 83 1009.5
20240527180408 18 244 0.0 0.0 0.00 0.25 0.25 84 1009.5
20240527180340 18 289 0.0 0.0 0.00 0.25 0.25 84 1009.5
20240527180309 18 288 0.0 0.0 0.00 0.25 0.25 84 1009.5
20240527180236 18 227 0.0 0.0 0.00 0.25 0.25 84 1009.5
20240527175927 18 266 0.0 0.0 0.00 0.25 0.25 84 1009.5
20240527175826 17 323 0.0 0.0 0.00 0.25 0.25 84 1009.5
20240527175727 17 323 0.0 0.0 0.00 0.25 0.25 85 1009.5
20240527175626 17 266 0.0 0.0 0.00 0.25 0.25 86 1009.6
20240527175528 17 327 0.0 0.0 0.00 0.25 0.25 87 1009.6
20240527175511 17 289 0.0 0.0 0.00 0.25 0.25 87 1009.6
20240527175429 17 255 0.0 0.0 0.00 0.25 0.25 87 1009.6
20240527175327 17 300 0.0 0.0 0.00 0.25 0.25 88 1009.6
20240527175226 17 295 0.0 0.0 0.00 0.25 0.25 88 1009.6
20240527175127 17 258 0.0 0.0 0.00 0.25 0.25 89 1009.6
20240527175027 17 275 0.0 0.0 0.00 0.25 0.25 89 1009.6
20240527175012 17 200 0.0 0.0 0.00 0.25 0.25 89 1009.7
20240527174926 17 200 0.0 0.0 0.00 0.25 0.25 90 1009.7
20240527174827 17 251 0.0 0.0 0.00 0.25 0.25 90 1009.7
20240527174726 17 227 0.0 0.0 0.00 0.25 0.25 90 1009.7
20240527174627 17 226 0.0 0.0 0.00 0.25 0.25 90 1009.7
20240527174527 17 226 0.0 0.0 0.00 0.25 0.25 90 1009.7
20240527174510 17 226 0.0 0.0 0.00 0.25 0.25 90 1009.8
20240527174426 17 226 0.0 0.0 0.00 0.25 0.25 90 1009.8
20240527174327 17 235 0.0 0.0 0.00 0.25 0.25 91 1009.8
20240527174224 17 302 0.0 0.0 0.00 0.25 0.25 91 1009.8
20240527174128 17 303 0.0 0.0 0.00 0.25 0.25 91 1009.9
20240527174010 17 303 0.0 0.0 0.00 0.25 0.25 91 1009.8
20240527173927 16 320 0.0 0.0 0.00 0.25 0.25 91 1009.8
20240527173826 16 279 0.0 0.0 0.00 0.25 0.25 91 1009.8
20240527173726 16 265 0.0 0.0 0.00 0.25 0.25 92 1009.8
20240527173626 16 258 0.0 0.0 0.00 0.25 0.25 92 1009.8
20240527173526 16 257 0.0 0.0 0.00 0.25 0.25 91 1009.9
20240527173510 16 257 0.0 0.0 0.00 0.25 0.25 91 1009.8
20240527173425 16 234 0.0 0.0 0.00 0.25 0.25 91 1009.8
20240527173326 16 238 0.0 0.0 0.00 0.25 0.25 91 1009.7
20240527173225 16 237 0.0 0.0 0.00 0.25 0.25 91 1009.7
20240527173129 16 237 0.0 0.0 0.00 0.25 0.25 91 1009.8
20240527173025 16 237 0.0 0.0 0.00 0.25 0.25 91 1009.8
20240527173010 16 237 0.0 0.0 0.00 0.25 0.25 91 1009.7
20240527172925 16 209 0.0 0.0 0.00 0.25 0.25 91 1009.7
20240527172824 16 212 0.0 0.0 0.00 0.25 0.25 91 1009.7
20240527172726 16 204 0.0 0.0 0.00 0.25 0.25 91 1009.7
20240527172628 16 206 0.0 0.0 0.00 0.25 0.25 92 1009.7
20240527172503 16 207 0.0 0.0 0.00 0.25 0.25 91 1009.8
20240527172427 16 207 0.0 0.0 0.00 0.25 0.25 91 1009.8
20240527172326 16 207 0.0 0.0 0.00 0.25 0.25 91 1009.8
20240527172225 16 207 0.0 0.0 0.00 0.25 0.25 91 1009.8
20240527172128 16 207 0.0 0.0 0.00 0.25 0.25 92 1009.8
20240527172003 16 209 0.0 0.0 0.00 0.25 0.25 91 1009.8
20240527171927 16 209 0.0 0.0 0.00 0.25 0.25 91 1009.8
20240527171846 16 245 0.0 0.0 0.00 0.25 0.25 92 1009.8
20240527171837 16 209 0.0 0.0 0.00 0.25 0.25 91 1009.8
20240527171809 16 216 0.0 0.0 0.00 0.25 0.25 92 1009.8
20240527171738 16 244 0.0 0.0 0.00 0.25 0.25 92 1009.8
20240527171717 16 244 0.0 0.0 0.00 0.25 0.25 92 1009.8
20240527171425 16 245 0.0 0.0 0.00 0.25 0.25 92 1009.8
20240527171327 16 245 0.0 0.0 0.00 0.25 0.25 91 1009.8
20240527171226 16 244 0.0 0.0 0.00 0.25 0.25 91 1009.8
20240527171135 16 244 0.0 0.0 0.00 0.25 0.25 91 1009.8
20240527171026 16 244 0.0 0.0 0.00 0.25 0.25 92 1009.8
20240527170929 16 245 0.0 0.0 0.00 0.25 0.25 92 1009.8
20240527170922 15 245 0.0 0.0 0.00 0.25 0.25 92 1009.9
20240527170855 16 245 0.0 0.0 0.00 0.25 0.25 91 1009.8
20240527170827 16 245 0.0 0.0 0.00 0.25 0.25 92 1009.8
20240527170753 15 245 0.0 0.0 0.00 0.25 0.25 91 1009.9
20240527170722 15 245 0.0 0.0 0.00 0.25 0.25 92 1009.8
20240527170426 16 245 0.0 0.0 0.00 0.25 0.25 92 1009.9
20240527170328 15 245 0.0 0.0 0.00 0.25 0.25 92 1009.8
20240527170256 16 245 0.0 0.0 0.00 0.25 0.25 92 1009.9
20240527170158 15 247 0.0 0.0 0.00 0.25 0.25 92 1009.9
20240527170056 15 193 0.0 0.0 0.00 0.25 0.25 92 1010.0
20240527165939 15 193 0.0 0.0 0.00 0.25 0.25 92 1009.9
20240527165915 15 193 0.0 0.0 0.00 0.25 0.25 92 1009.9
20240527165908 15 214 0.0 0.0 0.00 0.25 0.25 92 1010.1
20240527165900 15 219 0.0 0.0 0.00 0.25 0.25 92 1010.1
20240527165818 15 192 0.0 0.0 0.00 0.25 0.25 92 1009.9
20240527165718 15 192 0.0 0.0 0.00 0.25 0.25 92 1009.9
20240527165355 15 220 0.0 0.0 0.00 0.25 0.25 92 1010.0
20240527165258 15 235 0.0 0.0 0.00 0.25 0.25 92 1010.1
20240527165157 15 250 0.0 0.0 0.00 0.25 0.25 92 1010.0
20240527165057 15 248 0.0 0.0 0.00 0.25 0.25 93 1010.0
20240527164959 15 247 0.0 0.0 0.00 0.25 0.25 93 1010.0
20240527164938 15 248 0.0 0.0 0.00 0.25 0.25 93 1010.0
20240527164912 15 250 0.0 0.0 0.00 0.25 0.25 93 1010.0
20240527164900 15 237 0.0 0.0 0.00 0.25 0.25 93 1010.0
20240527164855 15 235 0.0 0.0 0.00 0.25 0.25 93 1010.0
20240527164817 15 258 0.0 0.0 0.00 0.25 0.25 93 1010.0
20240527164716 15 248 0.0 0.0 0.00 0.25 0.25 93 1010.0
20240527164355 15 228 0.0 0.0 0.00 0.25 0.25 93 1010.0
20240527164254 15 227 0.0 0.0 0.00 0.25 0.25 93 1010.0
20240527164157 15 279 0.0 0.0 0.00 0.25 0.25 93 1010.0
20240527164054 15 279 0.0 0.0 0.00 0.25 0.25 93 1010.0
20240527163939 15 279 0.0 0.0 0.00 0.25 0.25 93 1010.0
20240527163857 15 276 0.0 0.0 0.00 0.25 0.25 94 1010.0
20240527163759 15 298 0.0 0.0 0.00 0.25 0.25 94 1010.0
20240527163657 15 317 0.0 0.0 0.00 0.25 0.25 94 1010.0
20240527163556 15 168 0.0 0.0 0.00 0.25 0.25 94 1010.0
20240527163458 15 176 0.0 0.0 0.00 0.25 0.25 94 1010.0
20240527163441 15 176 0.0 0.0 0.00 0.25 0.25 94 1009.9
20240527163356 15 178 0.0 0.0 0.00 0.25 0.25 94 1010.0
20240527163258 15 185 0.0 0.0 0.03 0.25 0.25 94 1010.0
20240527163157 15 209 0.0 0.0 0.03 0.25 0.25 94 1009.9
20240527163058 15 209 0.0 0.0 0.03 0.25 0.25 94 1009.9
20240527162936 15 209 0.0 0.0 0.03 0.25 0.25 94 1010.0
20240527162855 15 209 0.0 0.0 0.03 0.25 0.25 94 1010.0
20240527162757 15 209 0.0 0.0 0.03 0.25 0.25 94 1009.9
20240527162700 15 209 0.0 0.0 0.03 0.25 0.25 94 1009.9
20240527162553 15 209 0.0 0.0 0.03 0.25 0.25 94 1009.9
20240527162438 15 209 0.0 0.0 0.03 0.25 0.25 94 1009.9
20240527162326 15 209 0.0 0.0 0.05 0.25 0.25 94 1009.9
20240527162226 15 209 0.0 0.0 0.05 0.25 0.25 94 1009.9
20240527162128 15 209 0.0 0.0 0.05 0.25 0.25 94 1009.9
20240527162025 15 209 0.0 0.0 0.05 0.25 0.25 94 1009.9
20240527161924 15 209 0.0 0.0 0.05 0.25 0.25 94 1009.9
20240527161824 15 209 0.0 0.0 0.05 0.25 0.25 94 1009.9
20240527161726 15 207 0.0 0.0 0.05 0.25 0.25 94 1009.9
20240527161624 15 207 0.0 0.0 0.08 0.25 0.25 94 1009.9
20240527161526 15 207 0.0 0.0 0.08 0.25 0.25 94 1009.9
20240527161425 15 207 0.0 0.0 0.10 0.25 0.25 94 1009.8
20240527161324 15 207 0.0 0.0 0.10 0.25 0.25 94 1009.9
20240527161225 15 207 0.0 0.0 0.13 0.25 0.25 94 1009.8
20240527161125 15 207 0.0 0.0 0.13 0.25 0.25 94 1009.7
20240527161024 15 207 0.0 0.0 0.15 0.25 0.25 94 1009.8
20240527160935 15 207 0.0 0.0 0.15 0.25 0.25 95 1009.8
20240527160926 15 209 0.0 0.0 0.15 0.25 0.25 95 1009.8
20240527160826 15 209 0.0 0.0 0.15 0.25 0.25 95 1009.7
20240527160704 15 209 0.0 0.0 0.18 0.25 0.25 95 1009.8
20240527160607 15 209 0.0 0.0 0.18 0.25 0.25 95 1009.7
20240527160503 15 209 0.0 0.0 0.18 0.25 0.25 95 1009.6
20240527160436 15 209 0.0 0.0 0.18 0.25 0.25 95 1009.6
20240527160403 15 209 0.0 0.0 0.18 0.25 0.25 95 1009.7
20240527160302 14 209 0.0 0.0 0.18 0.25 0.25 94 1009.7
20240527160202 14 209 0.0 0.0 0.18 0.25 0.25 94 1009.7
20240527160103 14 209 0.0 0.0 0.18 0.25 0.25 94 1009.7
20240527160001 14 209 0.0 0.0 0.18 0.25 0.08 94 1009.6
20240527155934 14 209 0.0 0.0 0.18 0.25 0.25 94 1009.6
20240527155913 14 281 0.0 0.0 0.18 0.25 0.25 94 1009.6
20240527155905 14 209 0.0 0.0 0.18 0.25 0.25 94 1009.7
20240527155838 14 209 0.0 0.0 0.18 0.25 0.25 94 1009.7
20240527155807 14 279 0.0 0.0 0.18 0.25 0.25 94 1009.7
20240527155732 14 281 0.0 0.0 0.18 0.25 0.25 94 1009.7
20240527155701 14 281 0.0 0.0 0.18 0.25 0.25 94 1009.6
20240527155353 14 281 0.0 0.0 0.18 0.25 0.25 94 1009.7
20240527155251 14 281 0.0 0.0 0.18 0.25 0.25 94 1009.6
20240527155152 14 281 0.0 0.0 0.18 0.25 0.25 94 1009.6
20240527155049 14 281 0.0 0.0 0.18 0.25 0.25 94 1009.6
20240527154935 14 281 0.0 0.0 0.18 0.25 0.25 94 1009.6
20240527154846 14 282 0.0 0.0 0.18 0.25 0.25 94 1009.7
20240527154744 14 282 0.0 0.0 0.18 0.25 0.25 94 1009.6
20240527154645 14 282 0.0 0.0 0.18 0.25 0.25 94 1009.6
20240527154542 14 282 0.0 0.0 0.18 0.25 0.25 94 1009.7
20240527154434 14 282 0.0 0.0 0.18 0.25 0.25 94 1009.5
20240527154340 14 282 0.0 0.0 0.18 0.25 0.25 94 1009.6
20240527154234 14 282 0.0 0.0 0.18 0.25 0.25 94 1009.5
20240527154202 14 282 0.0 0.0 0.18 0.25 0.25 94 1009.6
20240527154104 14 282 0.0 0.0 0.18 0.25 0.25 94 1009.5
20240527154007 14 282 0.0 0.0 0.18 0.25 0.25 94 1009.6
20240527153928 14 282 0.0 0.0 0.18 0.25 0.25 94 1009.6
20240527153903 14 282 0.0 0.0 0.18 0.25 0.25 94 1009.6
20240527153804 14 282 0.0 0.0 0.18 0.25 0.25 94 1009.6
20240527153659 14 282 0.0 0.0 0.18 0.25 0.25 94 1009.5
20240527153558 14 282 0.0 0.0 0.18 0.25 0.25 94 1009.5
20240527153504 14 282 0.0 0.0 0.18 0.25 0.25 94 1009.5
20240527153426 14 282 0.0 0.0 0.18 0.25 0.25 94 1009.5
20240527153356 14 282 0.0 0.0 0.15 0.23 0.23 94 1009.4
20240527153256 14 282 0.0 0.0 0.15 0.23 0.23 94 1009.4
20240527153155 14 282 0.0 0.0 0.15 0.23 0.23 94 1009.5
20240527153051 14 282 0.0 0.0 0.15 0.23 0.23 94 1009.4
20240527152924 14 282 0.0 0.0 0.15 0.23 0.23 94 1009.4
20240527152847 14 282 0.0 0.0 0.15 0.23 0.23 94 1009.4
20240527152743 14 282 0.0 0.0 0.15 0.23 0.23 94 1009.4
20240527152640 14 282 0.0 0.0 0.15 0.23 0.23 94 1009.4
20240527152541 14 282 0.0 0.0 0.15 0.23 0.23 94 1009.4
20240527152444 14 282 0.0 0.0 0.15 0.20 0.20 94 1009.4
20240527152424 14 282 0.0 0.0 0.15 0.23 0.23 94 1009.4
20240527152340 14 282 0.0 0.0 0.13 0.20 0.20 94 1009.4
20240527152239 14 282 0.0 0.0 0.13 0.20 0.20 94 1009.4
20240527152142 14 282 0.0 0.0 0.13 0.20 0.20 94 1009.4
20240527152043 14 282 0.0 0.0 0.13 0.20 0.20 94 1009.3
20240527151924 14 282 0.0 0.0 0.13 0.20 0.20 94 1009.3
20240527151902 14 282 0.0 0.0 0.13 0.20 0.20 94 1009.3
20240527151853 14 283 0.0 0.0 0.08 0.13 0.13 94 1009.4
20240527151847 14 283 0.0 0.0 0.08 0.13 0.13 94 1009.5
20240527151800 14 283 0.0 0.0 0.10 0.18 0.18 94 1009.4
20240527151657 14 283 0.0 0.0 0.08 0.15 0.15 94 1009.4
20240527151305 14 283 0.0 0.0 0.05 0.13 0.13 94 1009.5
20240527151203 14 283 0.0 0.0 0.05 0.13 0.13 94 1009.5
20240527151105 14 283 0.0 0.0 0.03 0.10 0.10 94 1009.6
20240527150912 14 283 0.0 0.0 0.03 0.10 0.10 94 1009.6
20240527150833 14 283 0.0 0.0 0.03 0.08 0.08 94 1009.6
20240527150823 14 255 0.0 0.0 0.00 0.08 0.08 94 1009.5
20240527150758 14 283 0.0 0.0 0.00 0.08 0.08 94 1009.5
20240527150702 14 255 0.0 0.0 0.00 0.08 0.08 94 1009.4
20240527150359 14 254 0.0 0.0 0.00 0.08 0.08 94 1009.5
20240527150229 14 252 0.0 0.0 0.00 0.08 0.08 94 1009.4
20240527150202 14 305 0.0 0.0 0.00 0.08 0.08 94 1009.5
20240527150102 14 307 0.0 0.0 0.00 0.08 0.08 94 1009.4
20240527145957 14 307 0.0 0.0 0.00 0.08 0.08 94 1009.3
20240527145907 14 307 0.0 0.0 0.00 0.08 0.08 94 1009.4
20240527145859 14 307 0.0 0.0 0.00 0.08 0.08 94 1009.4
20240527145829 14 307 0.0 0.0 0.00 0.08 0.08 94 1009.3
20240527145821 14 307 0.0 0.0 0.00 0.08 0.08 94 1009.4
20240527145753 14 307 0.0 0.0 0.00 0.08 0.08 94 1009.4
20240527145655 14 307 0.0 0.0 0.00 0.08 0.08 94 1009.3
20240527145356 14 307 0.0 0.0 0.00 0.08 0.08 94 1009.3
20240527145254 14 307 0.0 0.0 0.00 0.08 0.08 94 1009.3
20240527145154 14 307 0.0 0.0 0.00 0.08 0.08 94 1009.3
20240527145057 14 307 0.0 0.0 0.00 0.08 0.08 94 1009.3
20240527144955 14 309 0.0 0.0 0.00 0.08 0.08 94 1009.3
20240527144907 14 309 0.0 0.0 0.00 0.08 0.08 94 1009.3
20240527144900 14 309 0.0 0.0 0.00 0.08 0.08 94 1009.3
20240527144833 14 309 0.0 0.0 0.00 0.08 0.08 94 1009.3
20240527144800 14 309 0.0 0.0 0.00 0.08 0.08 94 1009.3
20240527144657 14 309 0.0 0.0 0.00 0.08 0.08 94 1009.2
20240527144351 14 309 0.0 0.0 0.00 0.08 0.08 94 1009.3
20240527144253 14 309 0.0 0.0 0.00 0.08 0.08 94 1009.3
20240527144201 14 309 0.0 0.0 0.00 0.08 0.08 94 1009.3
20240527144058 14 309 0.0 0.0 0.00 0.08 0.08 94 1009.3
20240527143951 14 309 0.0 0.0 0.00 0.08 0.08 94 1009.3
20240527143903 14 309 0.0 0.0 0.00 0.08 0.08 94 1009.3
20240527143857 14 309 0.0 0.0 0.00 0.08 0.08 94 1009.3
20240527143824 14 309 0.0 0.0 0.03 0.08 0.08 94 1009.3
20240527143752 14 309 0.0 0.0 0.00 0.08 0.08 94 1009.3
20240527143651 14 309 0.0 0.0 0.00 0.08 0.08 94 1009.3
20240527143349 14 309 0.0 0.0 0.03 0.08 0.08 94 1009.3
20240527143321 14 309 0.0 0.0 0.03 0.08 0.08 94 1009.2
20240527143248 14 309 0.0 0.0 0.03 0.08 0.08 94 1009.3
20240527143145 14 309 0.0 0.0 0.03 0.08 0.08 94 1009.2
20240527142835 14 309 0.0 0.0 0.03 0.08 0.08 94 1009.2
20240527142738 14 309 0.0 0.0 0.03 0.08 0.08 94 1009.1
20240527142637 13 309 0.0 0.0 0.05 0.08 0.08 94 1009.1
20240527142532 13 309 0.0 0.0 0.05 0.08 0.08 94 1009.1
20240527142405 13 309 0.0 0.0 0.05 0.08 0.08 94 1009.1
20240527142400 13 309 0.0 0.0 0.05 0.08 0.08 94 1009.1
20240527142316 13 309 0.0 0.0 0.05 0.08 0.08 94 1009.1
20240527142304 13 309 0.0 0.0 0.05 0.08 0.08 94 1009.1
20240527142208 13 309 0.0 0.0 0.05 0.08 0.08 94 1009.0
20240527142134 13 309 0.0 0.0 0.05 0.08 0.08 94 1009.0
20240527141853 13 309 0.0 0.0 0.05 0.08 0.08 94 1009.1
20240527141751 13 309 0.0 0.0 0.05 0.08 0.08 94 1009.0
20240527141650 13 309 0.0 0.0 0.05 0.08 0.08 94 1009.1
20240527141548 13 309 0.0 0.0 0.05 0.08 0.08 94 1009.1
20240527141447 13 309 0.0 0.0 0.05 0.08 0.08 94 1009.1
20240527141402 13 309 0.0 0.0 0.05 0.08 0.08 94 1009.1
20240527141345 13 309 0.0 0.0 0.05 0.08 0.08 94 1009.1
20240527141330 13 309 0.0 0.0 0.08 0.08 0.08 94 1009.2
20240527141307 13 309 0.0 0.0 0.05 0.08 0.08 94 1009.2
20240527141237 13 309 0.0 0.0 0.08 0.08 0.08 94 1009.1
20240527141206 13 309 0.0 0.0 0.08 0.08 0.08 94 1009.2
20240527141132 13 309 0.0 0.0 0.08 0.08 0.08 94 1009.1
20240527140835 13 309 0.0 0.0 0.08 0.08 0.08 94 1009.2
20240527140734 13 309 0.0 0.0 0.08 0.08 0.08 94 1009.2
20240527140633 13 309 0.0 0.0 0.08 0.08 0.08 94 1009.2
20240527140535 13 309 0.0 0.0 0.08 0.08 0.08 94 1009.2
20240527140430 13 309 0.0 0.0 0.08 0.08 0.08 94 1009.2
20240527140405 13 312 0.0 0.0 0.08 0.08 0.08 94 1009.1
20240527140343 13 310 0.0 0.0 0.08 0.08 0.08 94 1009.2
20240527140335 13 312 0.0 0.0 0.08 0.08 0.08 94 1009.1
20240527140306 13 313 0.0 0.0 0.08 0.08 0.08 94 1009.1
20240527140237 13 313 0.0 0.0 0.08 0.08 0.08 94 1009.2
20240527140204 13 313 0.0 0.0 0.08 0.08 0.08 94 1009.2
20240527140129 13 310 0.0 0.0 0.08 0.08 0.08 94 1009.2
20240527135824 13 310 0.0 0.0 0.08 0.08 0.08 93 1009.2
20240527135724 13 310 0.0 0.0 0.08 0.08 0.08 93 1009.1
20240527135711 13 312 0.0 0.0 0.08 0.08 0.08 93 1009.0
20240527135646 13 312 0.0 0.0 0.08 0.08 0.08 93 1009.1
20240527135610 13 312 0.0 0.0 0.08 0.08 0.08 93 1009.1
20240527135528 13 312 0.0 0.0 0.08 0.08 0.08 93 1009.1
20240527135500 13 312 0.0 0.0 0.08 0.08 0.08 93 1009.1
20240527135221 13 312 0.0 0.0 0.08 0.08 0.08 93 1009.1
20240527135151 13 312 0.0 0.0 0.08 0.08 0.08 93 1009.1
20240527135119 13 312 0.0 0.0 0.08 0.08 0.08 93 1009.1
20240527135042 13 312 0.0 0.0 0.08 0.08 0.08 93 1009.1
20240527135015 13 312 0.0 0.0 0.08 0.08 0.08 93 1009.1
20240527134945 13 312 0.0 0.0 0.08 0.08 0.08 93 1009.1
20240527134915 13 312 0.0 0.0 0.08 0.08 0.08 93 1009.1
20240527134836 13 312 0.0 0.0 0.08 0.08 0.08 93 1009.0
20240527134759 13 312 0.0 0.0 0.08 0.08 0.08 93 1009.1
20240527134732 13 312 0.0 0.0 0.08 0.08 0.08 93 1009.0
20240527134712 13 312 0.0 0.0 0.08 0.08 0.08 93 1008.8
20240527134644 13 312 0.0 0.0 0.08 0.08 0.08 93 1009.0
20240527134612 13 312 0.0 0.0 0.08 0.08 0.08 93 1009.0
20240527134542 13 312 0.0 0.0 0.08 0.08 0.08 93 1009.0
20240527134308 13 312 0.0 0.0 0.08 0.08 0.08 93 1009.0
20240527134239 13 312 0.0 0.0 0.08 0.08 0.08 93 1009.0
20240527134205 13 312 0.0 0.0 0.08 0.08 0.08 93 1008.8
20240527134137 13 312 0.0 0.0 0.08 0.05 0.05 93 1008.8
20240527134100 13 312 0.0 0.0 0.05 0.05 0.05 93 1009.0
20240527134034 13 312 0.0 0.0 0.05 0.05 0.05 93 1008.8
20240527134005 13 312 0.0 0.0 0.05 0.05 0.05 93 1008.8
20240527133936 13 312 0.0 0.0 0.05 0.05 0.05 93 1008.8
20240527133908 13 312 0.0 0.0 0.05 0.05 0.05 93 1008.8
20240527133834 13 312 0.0 0.0 0.05 0.05 0.05 93 1009.0
20240527133806 13 312 0.0 0.0 0.05 0.03 0.03 93 1009.0
20240527133737 13 312 0.0 0.0 0.05 0.03 0.03 93 1009.0
20240527133705 13 312 0.0 0.0 0.03 0.03 0.03 93 1008.8
20240527133638 13 310 0.0 0.0 0.03 0.03 0.03 93 1008.8
20240527133357 13 310 0.0 0.0 0.03 0.03 0.03 93 1008.8
20240527132229 13 310 0.0 0.0 0.03 0.03 0.03 93 1008.8
20240527132128 13 313 0.0 0.0 0.03 0.03 0.03 93 1008.8
20240527132027 13 313 0.0 1.6 0.03 0.03 0.03 93 1008.8
20240527131924 13 317 0.0 1.6 0.03 0.03 0.03 93 1009.0
20240527131824 13 317 0.0 1.6 0.03 0.03 0.03 93 1008.8
20240527131724 13 336 0.0 1.6 0.03 0.03 0.03 93 1008.8
20240527131605 13 290 0.0 1.6 0.03 0.03 0.03 93 1008.7
20240527131506 13 286 0.0 1.6 0.03 0.03 0.03 93 1008.8
20240527131401 12 289 0.0 1.6 0.03 0.03 0.03 93 1008.8
20240527131338 12 289 0.0 1.6 0.03 0.03 0.03 93 1008.8
20240527131302 12 258 0.0 1.6 0.03 0.00 0.00 93 1008.8
20240527131203 12 252 0.0 1.6 0.00 0.00 0.00 93 1008.8
20240527131101 12 271 0.0 0.0 0.00 0.00 0.00 93 1008.7
20240527131004 12 281 0.0 0.0 0.00 0.00 0.00 93 1008.7
20240527130901 12 281 0.0 0.0 0.00 0.00 0.00 93 1008.7
20240527130840 12 281 0.0 0.0 0.00 0.00 0.00 93 1008.7
20240527130814 12 272 0.0 0.0 0.00 0.00 0.00 93 1008.7
20240527130807 12 283 0.0 0.0 0.00 0.00 0.00 92 1008.7
20240527130736 12 283 0.0 0.0 0.00 0.00 0.00 93 1008.8
20240527130709 12 285 0.0 0.0 0.00 0.00 0.00 93 1008.8
20240527130635 12 283 0.0 0.0 0.00 0.00 0.00 93 1008.7
20240527130603 12 275 0.0 0.0 0.00 0.00 0.00 93 1008.7
20240527130303 12 285 0.0 0.0 0.00 0.00 0.00 93 1008.8
20240527130201 12 286 0.0 0.0 0.00 0.00 0.00 93 1008.7
20240527130100 12 286 0.0 0.0 0.00 0.00 0.00 93 1008.7
20240527130002 12 286 0.0 0.0 0.00 0.00 0.00 93 1008.8
20240527125902 12 286 0.0 0.0 0.00 0.00 0.00 93 1008.7
20240527125838 12 286 0.0 0.0 0.00 0.00 0.00 93 1008.7
20240527125801 12 289 0.0 0.0 0.00 0.00 0.00 93 1008.8
20240527125749 12 302 0.0 0.0 0.00 0.00 0.00 93 1008.8
20240527125725 12 289 0.0 0.0 0.00 0.00 0.00 93 1008.8
20240527125658 12 323 0.0 0.0 0.00 0.00 0.00 93 1008.7
20240527125629 12 300 0.0 0.0 0.00 0.00 0.00 93 1008.7
20240527125554 12 302 0.0 0.0 0.00 0.00 0.00 93 1008.8
20240527125238 12 285 0.0 0.0 0.00 0.00 0.00 93 1008.8
20240527125139 12 305 0.0 0.0 0.00 0.00 0.00 93 1008.7
20240527125038 12 300 0.0 0.0 0.00 0.00 0.00 93 1008.7
20240527124938 12 286 0.0 0.0 0.00 0.00 0.00 93 1008.7
20240527124835 12 281 0.0 0.0 0.00 0.00 0.00 93 1008.7
20240527124811 12 245 0.0 0.0 0.00 0.00 0.00 94 1008.8
20240527124751 12 299 0.0 0.0 0.00 0.00 0.00 93 1008.8
20240527124721 12 292 0.0 0.0 0.00 0.00 0.00 93 1008.8
20240527124650 12 312 0.0 0.0 0.00 0.00 0.00 93 1008.8
20240527124616 12 250 0.0 0.0 0.00 0.00 0.00 94 1008.7
20240527124328 12 247 0.0 0.0 0.00 0.00 0.00 94 1008.8
20240527124228 12 248 0.0 0.0 0.00 0.00 0.00 94 1008.8
20240527124125 12 303 0.0 0.0 0.00 0.00 0.00 94 1008.7
20240527124025 12 264 0.0 0.0 0.00 0.00 0.00 94 1008.8
20240527123922 12 262 0.0 0.0 0.00 0.00 0.00 94 1008.8
20240527123835 12 268 0.0 0.0 0.00 0.00 0.00 94 1008.8
20240527123824 12 268 0.0 0.0 0.00 0.00 0.00 94 1008.7
20240527123805 12 266 0.0 1.6 0.00 0.00 0.00 94 1008.7
20240527123744 12 268 0.0 0.0 0.00 0.00 0.00 94 1008.7
20240527123713 12 268 0.0 1.6 0.00 0.00 0.00 94 1008.7
20240527123644 12 266 0.0 1.6 0.00 0.00 0.00 94 1008.7
20240527123606 12 266 0.0 1.6 0.00 0.00 0.00 94 1008.7
20240527123314 12 266 0.0 1.6 0.00 0.00 0.00 94 1008.7
20240527123211 12 266 0.0 1.6 0.00 0.00 0.00 94 1008.7
20240527123109 12 266 0.0 1.6 0.00 0.00 0.00 94 1008.7
20240527123008 12 268 0.0 1.6 0.00 0.00 0.00 94 1008.7
20240527122907 12 268 0.0 1.6 0.00 0.00 0.00 94 1008.7
20240527122834 12 268 0.0 1.6 0.00 0.00 0.00 94 1008.7
20240527122806 12 268 0.0 1.6 0.00 0.00 0.00 95 1008.7
20240527122705 12 268 0.0 0.0 0.00 0.00 0.00 95 1008.6
20240527122605 12 268 0.0 0.0 0.00 0.00 0.00 95 1008.6
20240527122503 12 268 0.0 0.0 0.00 0.00 0.00 95 1008.7
20240527122403 12 268 0.0 0.0 0.00 0.00 0.00 95 1008.7
20240527122303 12 268 0.0 0.0 0.00 0.00 0.00 95 1008.7
20240527122246 12 268 0.0 0.0 0.00 0.00 0.00 95 1008.6
20240527122226 12 268 0.0 0.0 0.00 0.00 0.00 95 1008.7
20240527122200 12 268 0.0 0.0 0.00 0.00 0.00 95 1008.6
20240527122125 12 268 0.0 0.0 0.00 0.00 0.00 95 1008.6
20240527122051 12 268 0.0 0.0 0.00 0.00 0.00 95 1008.6
20240527121736 12 268 0.0 0.0 0.00 0.00 0.00 95 1008.6
20240527121635 12 268 0.0 0.0 0.00 0.00 0.00 95 1008.7
20240527121535 12 268 0.0 0.0 0.00 0.00 0.00 95 1008.7
20240527121435 12 268 0.0 0.0 0.00 0.00 0.00 95 1008.6
20240527121331 12 268 0.0 0.0 0.00 0.00 0.00 95 1008.6
20240527121303 12 268 0.0 0.0 0.00 0.00 0.00 95 1008.7
20240527121247 12 268 0.0 0.0 0.00 0.00 0.00 95 1008.6
20240527121219 12 268 0.0 0.0 0.00 0.00 0.00 95 1008.7
20240527121149 12 268 0.0 0.0 0.00 0.00 0.00 95 1008.7
20240527121119 12 268 0.0 0.0 0.00 0.00 0.00 95 1008.7
20240527120829 12 268 0.0 0.0 0.00 0.00 0.00 95 1008.7
20240527120727 12 268 0.0 0.0 0.00 0.00 0.00 95 1008.7
20240527120625 12 268 0.0 0.0 0.00 0.00 0.00 95 1008.7
20240527120524 12 268 0.0 0.0 0.00 0.00 0.00 95 1008.6
20240527120424 12 268 0.0 0.0 0.00 0.00 0.00 95 1008.6
20240527120321 12 268 0.0 0.0 0.00 0.00 0.00 95 1008.6
20240527120247 12 268 0.0 0.0 0.00 0.00 0.00 95 1008.5
20240527120232 12 268 0.0 0.0 0.00 0.00 0.00 95 1008.5
20240527120206 12 268 0.0 0.0 0.00 0.00 0.00 95 1008.6
20240527120137 12 268 0.0 0.0 0.00 0.00 0.00 95 1008.5
20240527120102 12 268 0.0 0.0 0.00 0.00 0.00 95 1008.5
20240527115813 12 268 0.0 0.0 0.00 0.00 0.00 95 1008.6
20240527115711 12 268 0.0 0.0 0.00 0.00 0.00 95 1008.6
20240527115610 11 268 0.0 0.0 0.00 0.00 0.00 95 1008.5
20240527115510 11 268 0.0 0.0 0.00 0.00 0.00 95 1008.6
20240527115407 11 268 0.0 0.0 0.00 0.00 0.00 95 1008.5
20240527115329 11 268 0.0 0.0 0.00 0.00 0.00 95 1008.5
20240527115306 11 268 0.0 0.0 0.00 0.00 0.00 95 1008.6
20240527115205 11 268 0.0 0.0 0.00 0.00 0.00 95 1008.5
20240527115105 11 268 0.0 0.0 0.00 0.00 0.00 95 1008.5
20240527114957 11 268 0.0 0.0 0.00 0.00 0.00 95 1008.5
20240527114829 11 268 0.0 0.0 0.00 0.00 0.00 95 1008.5
20240527114755 11 268 0.0 0.0 0.00 0.00 0.00 95 1008.5
20240527114653 11 268 0.0 0.0 0.00 0.00 0.00 95 1008.5
20240527114552 11 268 0.0 0.0 0.00 0.00 0.00 95 1008.5
20240527114450 11 268 0.0 0.0 0.00 0.00 0.00 96 1008.4
20240527114327 11 268 0.0 0.0 0.00 0.00 0.00 96 1008.5
20240527114256 11 288 0.0 0.0 0.00 0.00 0.00 96 1008.5
20240527114249 11 268 0.0 0.0 0.00 0.00 0.00 96 1008.5
20240527114219 11 266 0.0 0.0 0.00 0.00 0.00 96 1008.5
20240527114151 11 266 0.0 0.0 0.00 0.00 0.00 96 1008.4
20240527114118 11 266 0.0 0.0 0.00 0.00 0.00 96 1008.4
20240527114048 11 288 0.0 0.0 0.00 0.00 0.00 96 1008.5
20240527113738 11 288 0.0 0.0 0.00 0.00 0.00 96 1008.5
20240527113637 11 288 0.0 0.0 0.00 0.00 0.00 96 1008.6
20240527113536 11 288 0.0 0.0 0.00 0.00 0.00 96 1008.6
20240527113435 11 288 0.0 0.0 0.00 0.00 0.00 96 1008.6
20240527113326 11 283 0.0 0.0 0.00 0.00 0.00 96 1008.6
20240527113300 10 278 0.0 0.0 0.00 0.00 0.00 96 1008.5
20240527113246 11 282 0.0 0.0 0.00 0.00 0.00 96 1008.6
20240527113216 11 347 0.0 0.0 0.00 0.00 0.00 96 1008.6
20240527113149 11 347 0.0 0.0 0.00 0.00 0.00 96 1008.5
20240527113116 11 350 0.0 0.0 0.00 0.00 0.00 96 1008.5
20240527113042 10 355 0.0 0.0 0.00 0.00 0.00 96 1008.5
20240527112729 10 276 0.0 0.0 0.00 0.00 0.00 96 1008.5
20240527112630 10 276 0.0 0.0 0.00 0.00 0.00 96 1008.6
20240527112531 10 276 0.0 0.0 0.00 0.00 0.00 96 1008.5
20240527112428 10 243 0.0 0.0 0.00 0.00 0.00 96 1008.6
20240527112325 10 227 0.0 0.0 0.00 0.00 0.00 95 1008.5
20240527112258 10 168 0.0 0.0 0.00 0.00 0.00 95 1008.4
20240527112242 10 168 0.0 0.0 0.00 0.00 0.00 95 1008.5
20240527112213 10 168 0.0 0.0 0.00 0.00 0.00 96 1008.5
20240527112144 10 168 0.0 0.0 0.00 0.00 0.00 96 1008.5
20240527112111 10 168 0.0 0.0 0.00 0.00 0.00 96 1008.5
20240527112039 10 168 0.0 0.0 0.00 0.00 0.00 95 1008.4
20240527111723 10 168 0.0 0.0 0.00 0.00 0.00 95 1008.4
20240527111627 10 166 0.0 0.0 0.00 0.00 0.00 95 1008.3
20240527111526 10 166 0.0 0.0 0.00 0.00 0.00 95 1008.3
20240527111427 10 166 0.0 0.0 0.00 0.00 0.00 95 1008.3
20240527111325 10 166 0.0 0.0 0.00 0.00 0.00 95 1008.3
20240527111227 10 166 0.0 0.0 0.00 0.00 0.00 95 1008.3
20240527111125 9 166 0.0 0.0 0.00 0.00 0.00 95 1008.3
20240527111026 9 166 0.0 0.0 0.00 0.00 0.00 95 1008.3
20240527110924 9 166 0.0 0.0 0.00 0.00 0.00 95 1008.2
20240527110827 9 166 0.0 0.0 0.00 0.00 0.00 95 1008.3
20240527110725 9 166 0.0 0.0 0.00 0.00 0.00 95 1008.1
20240527110627 9 166 0.0 0.0 0.00 0.00 0.00 95 1008.2
20240527110526 9 166 0.0 0.0 0.00 0.00 0.00 95 1008.1
20240527110427 9 166 0.0 0.0 0.00 0.00 0.00 95 1008.2
20240527110325 9 166 0.0 0.0 0.00 0.00 0.00 95 1008.2
20240527110225 9 166 0.0 0.0 0.00 0.00 0.00 95 1008.1
20240527110123 9 166 0.0 0.0 0.00 0.00 0.00 95 1008.1
20240527110041 9 166 0.0 0.0 0.00 0.00 0.00 95 1008.1
20240527105924 9 166 0.0 0.0 0.00 0.00 0.00 95 1008.1
20240527105825 9 166 0.0 0.0 0.00 0.00 0.00 95 1008.2
20240527105724 9 166 0.0 0.0 0.00 0.00 0.00 95 1008.1
20240527105626 9 166 0.0 0.0 0.00 0.00 0.00 95 1008.1
20240527105526 9 166 0.0 0.0 0.00 0.00 0.00 95 1008.2
20240527105429 9 166 0.0 0.0 0.00 0.00 0.00 95 1008.1
20240527105325 9 166 0.0 0.0 0.00 0.00 0.00 95 1008.1
20240527105225 9 166 0.0 0.0 0.00 0.00 0.00 95 1008.1
20240527105124 9 166 0.0 0.0 0.00 0.00 0.00 95 1008.1
20240527105028 9 166 0.0 0.0 0.00 0.00 0.00 95 1008.1
20240527104925 9 166 0.0 0.0 0.00 0.00 0.00 95 1008.1
20240527104826 9 166 0.0 0.0 0.00 0.00 0.00 95 1008.2
20240527104726 8 166 0.0 0.0 0.00 0.00 0.00 95 1008.2
20240527104626 8 166 0.0 0.0 0.00 0.00 0.00 95 1008.2
20240527104526 8 166 0.0 0.0 0.00 0.00 0.00 95 1008.1
20240527104426 8 166 0.0 0.0 0.00 0.00 0.00 95 1008.1
20240527104324 8 166 0.0 0.0 0.00 0.00 0.00 95 1008.1
20240527104227 8 166 0.0 0.0 0.00 0.00 0.00 94 1008.0
20240527104124 8 166 0.0 0.0 0.00 0.00 0.00 94 1008.1
20240527104027 8 166 0.0 0.0 0.00 0.00 0.00 94 1008.1
20240527103923 8 166 0.0 0.0 0.00 0.00 0.00 94 1008.1
20240527103826 8 166 0.0 0.0 0.00 0.00 0.00 94 1008.1
20240527103725 8 166 0.0 0.0 0.00 0.00 0.00 94 1008.1
20240527103626 8 166 0.0 0.0 0.00 0.00 0.00 94 1008.1
20240527103526 8 166 0.0 0.0 0.00 0.00 0.00 94 1008.1
20240527103428 8 166 0.0 0.0 0.00 0.00 0.00 94 1008.0
20240527103324 8 166 0.0 0.0 0.00 0.00 0.00 94 1008.1
20240527103226 8 166 0.0 0.0 0.00 0.00 0.00 94 1008.1
20240527103125 8 166 0.0 0.0 0.00 0.00 0.00 94 1008.1
20240527103028 8 166 0.0 0.0 0.00 0.00 0.00 94 1008.0
20240527102925 8 166 0.0 0.0 0.00 0.00 0.00 94 1008.1
20240527102826 8 166 0.0 0.0 0.00 0.00 0.00 94 1008.0
20240527102747 8 166 0.0 0.0 0.00 0.00 0.00 94 1008.1
20240527102734 8 166 0.0 0.0 0.00 0.00 0.00 94 1008.0
20240527102706 8 166 0.0 0.0 0.00 0.00 0.00 94 1008.1
20240527102637 8 166 0.0 0.0 0.00 0.00 0.00 94 1008.1
20240527102606 8 166 0.0 0.0 0.00 0.00 0.00 94 1008.1
20240527102320 8 166 0.0 0.0 0.00 0.00 0.00 94 1008.1
20240527102247 8 166 0.0 0.0 0.00 0.00 0.00 94 1008.0
20240527102230 8 166 0.0 0.0 0.00 0.00 0.00 94 1008.1
20240527102200 8 166 0.0 0.0 0.00 0.00 0.00 94 1008.0
20240527102131 8 166 0.0 0.0 0.00 0.00 0.00 94 1008.0
20240527102101 8 166 0.0 0.0 0.00 0.00 0.00 94 1008.0
20240527101812 8 166 0.0 0.0 0.00 0.00 0.00 94 1008.0
20240527101710 8 166 0.0 0.0 0.00 0.00 0.00 94 1008.0
20240527101610 8 166 0.0 0.0 0.00 0.00 0.00 94 1008.0
20240527101507 8 166 0.0 0.0 0.00 0.00 0.00 94 1008.0
20240527101407 8 166 0.0 0.0 0.00 0.00 0.00 94 1007.9
20240527101322 8 166 0.0 0.0 0.00 0.00 0.00 94 1007.9
20240527101304 8 166 0.0 0.0 0.00 0.00 0.00 94 1008.0
20240527101206 8 166 0.0 0.0 0.00 0.00 0.00 94 1008.0
20240527101153 8 166 0.0 0.0 0.00 0.00 0.00 94 1008.0
20240527101138 8 166 0.0 0.0 0.00 0.00 0.00 94 1007.9
20240527101113 8 166 0.0 0.0 0.00 0.00 0.00 94 1007.9
20240527101054 8 166 0.0 0.0 0.00 0.00 0.00 94 1008.0
20240527100804 8 166 0.0 0.0 0.00 0.00 0.00 94 1007.9
20240527100646 8 166 0.0 0.0 0.00 0.00 0.00 94 1007.9
20240527100544 8 166 0.0 0.0 0.00 0.00 0.00 94 1007.9
20240527100445 8 166 0.0 0.0 0.00 0.00 0.00 94 1007.9
20240527100322 8 166 0.0 0.0 0.00 0.00 0.00 94 1008.0
20240527100255 8 166 0.0 0.0 0.00 0.00 0.00 94 1007.8
20240527100245 8 166 0.0 0.0 0.00 0.00 0.00 94 1007.9
20240527100216 8 166 0.0 0.0 0.00 0.00 0.00 94 1007.9
20240527100149 8 166 0.0 0.0 0.00 0.00 0.00 94 1007.9
20240527100115 8 166 0.0 0.0 0.00 0.00 0.00 94 1007.9
20240527100045 8 166 0.0 0.0 0.00 0.00 0.00 94 1007.8
20240527095731 8 166 0.0 0.0 0.00 0.00 0.00 94 1007.9
20240527095631 8 166 0.0 0.0 0.00 0.00 0.00 94 1007.9
20240527095531 8 166 0.0 0.0 0.00 0.00 0.00 94 1007.9
20240527095432 8 166 0.0 0.0 0.00 0.00 0.00 94 1007.9
20240527095323 8 166 0.0 0.0 0.00 0.00 0.00 94 1007.8
20240527095233 8 166 0.0 0.0 0.00 0.00 0.00 94 1007.9
20240527095225 9 166 0.0 0.0 0.00 0.00 0.00 94 1007.9
20240527095205 8 166 0.0 0.0 0.00 0.00 0.00 94 1007.9
20240527095140 8 166 0.0 0.0 0.00 0.00 0.00 94 1007.9
20240527095108 9 166 0.0 0.0 0.00 0.00 0.00 94 1007.9
20240527095037 9 166 0.0 0.0 0.00 0.00 0.00 94 1007.9
20240527094724 9 166 0.0 0.0 0.00 0.00 0.00 94 1007.9
20240527094625 9 166 0.0 0.0 0.00 0.00 0.00 94 1007.9
20240527094526 9 166 0.0 0.0 0.00 0.00 0.00 94 1007.9
20240527094426 9 166 0.0 0.0 0.00 0.00 0.00 94 1007.9
20240527094324 9 166 0.0 0.0 0.00 0.00 0.00 94 1007.9
20240527094226 9 166 0.0 0.0 0.00 0.00 0.00 94 1007.9
20240527094124 9 166 0.0 0.0 0.00 0.00 0.00 94 1007.9
20240527094026 9 166 0.0 0.0 0.00 0.00 0.00 94 1007.8
20240527093924 9 166 0.0 0.0 0.00 0.00 0.00 94 1007.9
20240527093826 9 166 0.0 0.0 0.00 0.00 0.00 94 1007.9
20240527093725 9 166 0.0 0.0 0.00 0.00 0.00 94 1007.8
20240527093625 9 166 0.0 0.0 0.00 0.00 0.00 94 1007.9
20240527093526 9 166 0.0 0.0 0.00 0.00 0.00 94 1007.9
20240527093426 9 166 0.0 0.0 0.00 0.00 0.00 94 1007.9
20240527093324 9 166 0.0 0.0 0.00 0.00 0.00 94 1007.9
20240527093228 9 166 0.0 0.0 0.00 0.00 0.00 94 1007.9
20240527093124 9 166 0.0 0.0 0.00 0.00 0.00 94 1007.9
20240527093027 9 166 0.0 0.0 0.00 0.00 0.00 94 1007.9
20240527092923 9 166 0.0 0.0 0.00 0.00 0.00 94 1007.9
20240527092827 9 166 0.0 0.0 0.00 0.00 0.00 94 1008.0
20240527092724 9 166 0.0 0.0 0.00 0.00 0.00 94 1008.0
20240527092627 9 166 0.0 0.0 0.00 0.00 0.00 94 1008.0
20240527092527 9 166 0.0 0.0 0.00 0.00 0.00 94 1008.0
20240527092429 9 166 0.0 0.0 0.00 0.00 0.00 94 1008.0
20240527092324 9 166 0.0 0.0 0.00 0.00 0.00 94 1007.9
20240527092225 9 166 0.0 0.0 0.00 0.00 0.00 94 1008.0
20240527092124 9 166 0.0 0.0 0.00 0.00 0.00 94 1008.0
20240527092029 9 166 0.0 0.0 0.00 0.00 0.00 94 1007.9
20240527091923 9 166 0.0 0.0 0.00 0.00 0.00 94 1007.9
20240527091826 9 166 0.0 0.0 0.00 0.00 0.00 94 1007.9
20240527091724 9 166 0.0 0.0 0.00 0.00 0.00 94 1007.9
20240527091626 9 166 0.0 0.0 0.00 0.00 0.00 94 1007.8
20240527091526 9 166 0.0 0.0 0.00 0.00 0.00 94 1007.8
20240527091427 9 166 0.0 0.0 0.00 0.00 0.00 94 1007.8
20240527091325 9 166 0.0 0.0 0.00 0.00 0.00 94 1007.7
20240527091225 9 166 0.0 0.0 0.00 0.00 0.00 94 1007.8
20240527091125 9 166 0.0 0.0 0.00 0.00 0.00 94 1007.8
20240527091028 9 166 0.0 0.0 0.00 0.00 0.00 94 1007.8
20240527090924 9 166 0.0 0.0 0.00 0.00 0.00 94 1007.8
20240527090825 9 166 0.0 0.0 0.00 0.00 0.00 94 1007.8
20240527090754 9 166 0.0 0.0 0.00 0.00 0.00 94 1007.7
20240527090735 9 166 0.0 0.0 0.00 0.00 0.00 94 1007.8
20240527090708 9 166 0.0 0.0 0.00 0.00 0.00 94 1007.8
20240527090643 9 166 0.0 0.0 0.00 0.00 0.00 94 1007.7
20240527090611 9 166 0.0 0.0 0.00 0.00 0.00 94 1007.8
20240527090536 9 166 0.0 0.0 0.00 0.00 0.00 94 1007.7
20240527090226 9 166 0.0 0.0 0.00 0.00 0.00 94 1007.8
20240527090125 9 166 0.0 0.0 0.00 0.00 0.00 94 1007.8
20240527090029 9 166 0.0 0.0 0.00 0.00 0.00 94 1007.8
20240527085924 9 166 0.0 0.0 0.00 0.00 0.00 94 1007.9
20240527085826 9 166 0.0 0.0 0.00 0.00 0.00 94 1007.8
20240527085728 10 166 0.0 0.0 0.00 0.00 0.00 94 1007.9
20240527085627 10 166 0.0 0.0 0.00 0.00 0.00 94 1007.8
20240527085526 10 166 0.0 0.0 0.00 0.00 0.00 94 1007.8
20240527085428 10 166 0.0 0.0 0.00 0.00 0.00 94 1007.8
20240527085325 10 166 0.0 0.0 0.00 0.00 0.00 94 1007.8
20240527085226 10 166 0.0 0.0 0.00 0.00 0.00 94 1007.7
20240527085125 10 166 0.0 0.0 0.00 0.00 0.00 94 1007.8
20240527085027 10 166 0.0 0.0 0.00 0.00 0.00 94 1007.8
20240527084923 10 166 0.0 0.0 0.00 0.00 0.00 94 1007.8
20240527084826 10 166 0.0 0.0 0.00 0.00 0.00 94 1007.8
20240527084812 10 166 0.0 0.0 0.00 0.00 0.00 94 1007.9
20240527084726 10 166 0.0 0.0 0.00 0.00 0.00 94 1007.9
20240527084627 10 166 0.0 0.0 0.00 0.00 0.00 94 1007.9
20240527084526 10 166 0.0 0.0 0.00 0.00 0.00 94 1007.9
20240527084428 10 166 0.0 0.0 0.00 0.00 0.00 94 1007.8
20240527084308 10 166 0.0 0.0 0.00 0.00 0.00 94 1007.9
20240527084225 10 166 0.0 0.0 0.00 0.00 0.00 94 1007.9
20240527084124 10 166 0.0 0.0 0.00 0.00 0.00 94 1007.9
20240527084027 10 166 0.0 0.0 0.00 0.00 0.00 94 1007.9
20240527083924 10 166 0.0 0.0 0.00 0.00 0.00 94 1007.9
20240527083808 10 166 0.0 0.0 0.00 0.00 0.00 94 1007.9
20240527083726 10 166 0.0 0.0 0.00 0.00 0.00 94 1007.8
20240527083625 10 166 0.0 0.0 0.00 0.00 0.00 94 1007.8
20240527083525 10 166 0.0 0.0 0.00 0.00 0.00 94 1007.9
20240527083428 10 166 0.0 0.0 0.00 0.00 0.00 94 1007.9
20240527083324 10 166 0.0 0.0 0.00 0.00 0.00 94 1007.8
20240527083307 10 166 0.0 0.0 0.00 0.00 0.00 94 1007.9
20240527083228 10 166 0.0 0.0 0.00 0.00 0.00 94 1007.9
20240527083125 10 166 0.0 0.0 0.00 0.00 0.00 94 1007.9
20240527083027 10 166 0.0 0.0 0.00 0.00 0.00 94 1007.9
20240527082924 10 166 0.0 0.0 0.00 0.00 0.00 94 1007.9
20240527082826 10 166 0.0 0.0 0.00 0.00 0.00 94 1007.9
20240527082801 10 166 0.0 0.0 0.00 0.00 0.00 94 1007.8
20240527082724 10 166 0.0 0.0 0.00 0.00 0.00 94 1007.8
20240527082625 10 166 0.0 0.0 0.00 0.00 0.00 94 1007.9
20240527082526 10 166 0.0 0.0 0.00 0.00 0.00 93 1007.9
20240527082427 10 166 0.0 0.0 0.00 0.00 0.00 93 1007.8
20240527082325 10 166 0.0 0.0 0.00 0.00 0.00 93 1007.8
20240527082302 10 166 0.0 0.0 0.00 0.00 0.00 93 1007.9
20240527082227 10 166 0.0 0.0 0.00 0.00 0.00 93 1007.9
20240527082138 10 166 0.0 0.0 0.00 0.00 0.00 93 1007.8
20240527082130 10 166 0.0 0.0 0.00 0.00 0.00 93 1007.9
20240527082105 10 166 0.0 0.0 0.00 0.00 0.00 93 1007.8
20240527082033 10 166 0.0 0.0 0.00 0.00 0.00 93 1007.9
20240527082006 10 166 0.0 0.0 0.00 0.00 0.00 93 1007.8
20240527081724 10 166 0.0 0.0 0.00 0.00 0.00 93 1007.8
20240527081626 10 166 0.0 0.0 0.00 0.00 0.00 93 1007.8
20240527081559 10 166 0.0 0.0 0.00 0.00 0.00 93 1007.7
20240527081455 10 166 0.0 0.0 0.00 0.00 0.00 94 1007.8
20240527081351 10 166 0.0 0.0 0.00 0.00 0.00 94 1007.8
20240527081231 10 166 0.0 0.0 0.00 0.00 0.00 94 1007.8
20240527081203 10 166 0.0 0.0 0.00 0.00 0.00 94 1007.7
20240527081136 10 166 0.0 0.0 0.00 0.00 0.00 93 1007.7
20240527081104 10 166 0.0 0.0 0.00 0.00 0.00 94 1007.7
20240527081007 10 166 0.0 0.0 0.00 0.00 0.00 94 1007.7
20240527080656 10 166 0.0 0.0 0.00 0.00 0.00 93 1007.6
20240527080557 10 166 0.0 0.0 0.00 0.00 0.00 93 1007.6
20240527080456 10 166 0.0 0.0 0.00 0.00 0.00 93 1007.6
20240527080353 10 166 0.0 0.0 0.00 0.00 0.00 93 1007.6
20240527080229 10 166 0.0 0.0 0.00 0.00 0.00 93 1007.5
20240527080200 10 166 0.0 0.0 0.00 0.00 0.00 93 1007.5
20240527080144 10 166 0.0 0.0 0.00 0.00 0.00 94 1007.5
20240527080105 10 166 0.0 0.0 0.00 0.00 0.00 93 1007.5
20240527080008 10 166 0.0 0.0 0.00 0.00 0.00 93 1007.5
20240527075657 10 166 0.0 0.0 0.00 0.00 0.00 94 1007.5
20240527075557 10 166 0.0 0.0 0.00 0.00 0.00 94 1007.5
20240527075503 10 166 0.0 0.0 0.00 0.00 0.00 94 1007.5
20240527075355 10 166 0.0 0.0 0.00 0.00 0.00 94 1007.6
20240527075229 10 166 0.0 0.0 0.00 0.00 0.00 94 1007.6
20240527075155 10 166 0.0 0.0 0.00 0.00 0.00 94 1007.5
20240527075057 10 166 0.0 0.0 0.00 0.00 0.00 94 1007.5
20240527074953 10 166 0.0 0.0 0.00 0.00 0.00 94 1007.5
20240527074854 10 166 0.0 0.0 0.00 0.00 0.00 94 1007.5
20240527074729 10 166 0.0 0.0 0.00 0.00 0.00 94 1007.5
20240527074656 10 166 0.0 0.0 0.00 0.00 0.00 94 1007.5
20240527074557 10 166 0.0 0.0 0.00 0.00 0.00 94 1007.4
20240527074458 10 166 0.0 0.0 0.00 0.00 0.00 94 1007.4
20240527074357 10 166 0.0 0.0 0.00 0.00 0.00 94 1007.5
20240527074229 10 166 0.0 0.0 0.00 0.00 0.00 94 1007.5
20240527074203 10 166 0.0 0.0 0.00 0.00 0.00 94 1007.6
20240527074146 10 166 0.0 0.0 0.00 0.00 0.00 93 1007.6
20240527074104 10 166 0.0 0.0 0.00 0.00 0.00 94 1007.5
20240527074009 10 166 0.0 0.0 0.00 0.00 0.00 93 1007.6
20240527073654 10 123 0.0 0.0 0.00 0.00 0.00 93 1007.7
20240527073556 10 123 0.0 0.0 0.00 0.00 0.00 93 1007.7
20240527073456 10 123 0.0 0.0 0.00 0.00 0.00 93 1007.7
20240527073355 10 123 0.0 0.0 0.00 0.00 0.00 93 1007.7
20240527073228 10 123 0.0 0.0 0.00 0.00 0.00 94 1007.7
20240527073200 10 123 0.0 0.0 0.00 0.00 0.00 94 1007.6
20240527073119 10 123 0.0 0.0 0.00 0.00 0.00 94 1007.7
20240527073113 10 123 0.0 0.0 0.00 0.00 0.00 94 1007.6
20240527073049 10 123 0.0 0.0 0.00 0.00 0.00 94 1007.7
20240527073000 10 123 0.0 0.0 0.00 0.00 0.00 94 1007.7
20240527072702 10 123 0.0 0.0 0.00 0.00 0.00 94 1007.7
20240527072556 10 123 0.0 0.0 0.00 0.00 0.00 94 1007.6
20240527072451 10 123 0.0 0.0 0.00 0.00 0.00 94 1007.6
20240527072352 10 123 0.0 0.0 0.00 0.00 0.00 94 1007.7
20240527072254 10 123 0.0 0.0 0.00 0.00 0.00 93 1007.6
20240527072228 10 123 0.0 0.0 0.00 0.00 0.00 94 1007.6
20240527072207 10 123 0.0 0.0 0.00 0.00 0.00 93 1007.7
20240527072145 10 123 0.0 0.0 0.00 0.00 0.00 93 1007.7
20240527072103 10 123 0.0 0.0 0.00 0.00 0.00 93 1007.7
20240527072005 10 123 0.0 0.0 0.00 0.00 0.00 93 1007.7
20240527071653 10 123 0.0 0.0 0.00 0.00 0.00 93 1007.7
20240527071552 10 123 0.0 0.0 0.00 0.00 0.00 93 1007.7
20240527071451 10 123 0.0 0.0 0.00 0.00 0.00 93 1007.8
20240527071353 10 123 0.0 0.0 0.00 0.00 0.00 93 1007.7
20240527071225 10 123 0.0 0.0 0.00 0.00 0.00 93 1007.7
20240527071203 10 123 0.0 0.0 0.00 0.00 0.00 93 1007.7
20240527071145 10 123 0.0 0.0 0.00 0.00 0.00 93 1007.7
20240527071101 10 123 0.0 0.0 0.00 0.00 0.00 93 1007.7
20240527071005 10 123 0.0 0.0 0.00 0.00 0.00 93 1007.8
20240527070652 10 123 0.0 0.0 0.00 0.00 0.00 93 1007.8
20240527070552 10 123 0.0 0.0 0.00 0.00 0.00 93 1007.7
20240527070448 10 123 0.0 0.0 0.00 0.00 0.00 93 1007.8
20240527070349 10 123 0.0 0.0 0.00 0.00 0.00 93 1007.8
20240527070227 10 123 0.0 0.0 0.00 0.00 0.00 93 1007.8
20240527070201 10 123 0.0 0.0 0.00 0.00 0.00 93 1007.7
20240527070153 10 123 0.0 0.0 0.00 0.00 0.00 93 1007.7
20240527070146 10 123 0.0 0.0 0.00 0.00 0.00 93 1007.8
20240527070057 10 123 0.0 0.0 0.00 0.00 0.00 93 1007.7
20240527070000 10 123 0.0 0.0 0.00 0.00 0.00 93 1007.7
20240527065637 10 123 0.0 0.0 0.00 0.00 0.00 93 1007.7
20240527065503 10 123 0.0 0.0 0.00 0.00 0.00 93 1007.7
20240527065403 10 123 0.0 0.0 0.00 0.00 0.00 93 1007.7
20240527065303 10 123 0.0 0.0 0.00 0.00 0.00 93 1007.8
20240527065225 10 123 0.0 0.0 0.00 0.00 0.00 93 1007.8
20240527065204 10 123 0.0 0.0 0.00 0.00 0.00 93 1007.7
20240527065139 10 123 0.0 0.0 0.00 0.00 0.00 93 1007.7
20240527065114 10 123 0.0 0.0 0.00 0.00 0.00 93 1007.7
20240527065041 10 123 0.0 0.0 0.00 0.00 0.00 93 1007.7
20240527065014 10 123 0.0 0.0 0.00 0.00 0.00 93 1007.7
20240527064945 10 123 0.0 0.0 0.00 0.00 0.00 93 1007.7
20240527064640 10 123 0.0 0.0 0.00 0.00 0.00 93 1007.8
20240527064530 10 123 0.0 0.0 0.00 0.00 0.00 93 1007.7
20240527064430 10 123 0.0 0.0 0.00 0.00 0.00 93 1007.7
20240527064330 10 123 0.0 0.0 0.00 0.00 0.00 93 1007.7
20240527064225 10 123 0.0 0.0 0.00 0.00 0.00 93 1007.7
20240527064153 10 123 0.0 0.0 0.00 0.00 0.00 93 1007.6
20240527064140 10 123 0.0 0.0 0.00 0.00 0.00 93 1007.6
20240527064108 10 123 0.0 0.0 0.00 0.00 0.00 93 1007.6
20240527064038 10 123 0.0 0.0 0.00 0.00 0.00 93 1007.7
20240527064011 10 123 0.0 0.0 0.00 0.00 0.00 93 1007.7
20240527063941 10 123 0.0 0.0 0.00 0.00 0.00 93 1007.7
20240527063626 10 123 0.0 0.0 0.00 0.00 0.00 93 1007.6
20240527063525 10 123 0.0 0.0 0.00 0.00 0.00 93 1007.6
20240527063423 10 123 0.0 0.0 0.00 0.00 0.00 93 1007.5
20240527063321 10 123 0.0 0.0 0.00 0.00 0.00 93 1007.5
20240527063211 10 123 0.0 0.0 0.00 0.00 0.00 93 1007.5
20240527063111 10 123 0.0 0.0 0.00 0.00 0.00 92 1007.5
20240527063010 10 123 0.0 0.0 0.00 0.00 0.00 92 1007.5
20240527062909 10 123 0.0 0.0 0.00 0.00 0.00 92 1007.6
20240527062808 10 123 0.0 0.0 0.00 0.00 0.00 92 1007.6
20240527062707 10 123 0.0 0.0 0.00 0.00 0.00 92 1007.5
20240527062604 10 123 0.0 0.0 0.00 0.00 0.00 92 1007.5
20240527062510 10 123 0.0 0.0 0.00 0.00 0.00 92 1007.5
20240527062403 10 123 0.0 0.0 0.00 0.00 0.00 92 1007.5
20240527062305 10 123 0.0 0.0 0.00 0.00 0.00 92 1007.5
20240527062205 10 123 0.0 0.0 0.00 0.00 0.00 92 1007.5
20240527062140 10 123 0.0 0.0 0.00 0.00 0.00 92 1007.5
20240527062122 10 123 0.0 0.0 0.00 0.00 0.00 92 1007.5
20240527062051 10 123 0.0 0.0 0.00 0.00 0.00 92 1007.5
20240527062021 10 123 0.0 0.0 0.00 0.00 0.00 92 1007.5
20240527061950 10 123 0.0 0.0 0.00 0.00 0.00 92 1007.5
20240527061701 10 123 0.0 0.0 0.00 0.00 0.00 92 1007.5
20240527061600 10 123 0.0 0.0 0.00 0.00 0.00 92 1007.5
20240527061458 10 123 0.0 0.0 0.00 0.00 0.00 92 1007.6
20240527061356 10 123 0.0 0.0 0.00 0.00 0.00 92 1007.6
20240527061254 10 123 0.0 0.0 0.00 0.00 0.00 92 1007.5
20240527061212 10 123 0.0 0.0 0.00 0.00 0.00 92 1007.6
20240527061155 10 123 0.0 0.0 0.00 0.00 0.00 92 1007.6
20240527061144 10 123 0.0 0.0 0.00 0.00 0.00 92 1007.5
20240527061121 10 123 0.0 0.0 0.00 0.00 0.00 92 1007.5
20240527061042 10 123 0.0 0.0 0.00 0.00 0.00 92 1007.6
20240527061014 10 123 0.0 0.0 0.00 0.00 0.00 92 1007.5
20240527060944 10 123 0.0 0.0 0.00 0.00 0.00 92 1007.6
20240527060642 10 123 0.0 0.0 0.00 0.00 0.00 92 1007.5
20240527060545 10 123 0.0 0.0 0.00 0.00 0.00 92 1007.6
20240527060440 10 123 0.0 0.0 0.00 0.00 0.00 92 1007.5
20240527060340 10 123 0.0 0.0 0.00 0.00 0.00 92 1007.6
20240527060235 10 123 0.0 0.0 0.00 0.00 0.00 92 1007.6
20240527060211 10 123 0.0 0.0 0.00 0.00 0.00 92 1007.5
20240527060151 10 123 0.0 0.0 0.00 0.00 0.00 92 1007.5
20240527060142 10 123 0.0 0.0 0.00 0.00 0.00 92 1007.5
20240527060112 10 123 0.0 0.0 0.00 0.00 0.00 92 1007.6
20240527060029 10 123 0.0 0.0 0.00 0.00 0.00 92 1007.6
20240527060001 10 123 0.0 0.0 0.00 0.00 0.00 92 1007.5
20240527055934 10 123 0.0 0.0 0.00 0.00 0.00 92 1007.6
20240527055631 10 123 0.0 0.0 0.00 0.00 0.00 92 1007.5
20240527055534 10 123 0.0 0.0 0.00 0.00 0.00 92 1007.5
20240527055432 10 123 0.0 0.0 0.00 0.00 0.00 91 1007.6
20240527055330 10 123 0.0 0.0 0.00 0.00 0.00 91 1007.6
20240527055206 10 123 0.0 0.0 0.00 0.00 0.00 91 1007.6
20240527055124 10 123 0.0 0.0 0.00 0.00 0.00 91 1007.6
20240527055023 10 123 0.0 0.0 0.00 0.00 0.00 91 1007.6
20240527054922 10 123 0.0 0.0 0.00 0.00 0.00 91 1007.5
20240527054822 10 123 0.0 0.0 0.00 0.00 0.00 91 1007.5
20240527054706 10 123 0.0 0.0 0.00 0.00 0.00 91 1007.5
20240527054616 10 123 0.0 0.0 0.00 0.00 0.00 91 1007.6
20240527054515 10 123 0.0 0.0 0.00 0.00 0.00 91 1007.6
20240527054412 10 123 0.0 0.0 0.00 0.00 0.00 91 1007.5
20240527054311 10 123 0.0 0.0 0.00 0.00 0.00 91 1007.6
20240527054204 10 123 0.0 0.0 0.00 0.00 0.00 91 1007.5
20240527054113 10 123 0.0 0.0 0.00 0.00 0.00 91 1007.5
20240527054009 10 123 0.0 0.0 0.00 0.00 0.00 91 1007.5
20240527053906 10 123 0.0 0.0 0.00 0.00 0.00 91 1007.5
20240527053804 10 123 0.0 0.0 0.00 0.00 0.00 91 1007.5
20240527053704 10 123 0.0 0.0 0.00 0.00 0.00 91 1007.5
20240527053606 10 123 0.0 0.0 0.00 0.00 0.00 91 1007.5
20240527053543 10 123 0.0 0.0 0.00 0.00 0.00 91 1007.6
20240527053525 10 123 0.0 0.0 0.00 0.00 0.00 91 1007.5
20240527053458 10 123 0.0 0.0 0.00 0.00 0.00 91 1007.5
20240527053427 10 123 0.0 0.0 0.00 0.00 0.00 91 1007.5
20240527053403 10 123 0.0 0.0 0.00 0.00 0.00 91 1007.6
20240527053058 11 123 0.0 0.0 0.00 0.00 0.00 91 1007.6
20240527052959 11 123 0.0 0.0 0.00 0.00 0.00 91 1007.6
20240527052857 11 123 0.0 0.0 0.00 0.00 0.00 91 1007.6
20240527052754 11 123 0.0 0.0 0.00 0.00 0.00 91 1007.6
20240527052635 11 123 0.0 0.0 0.00 0.00 0.00 91 1007.6
20240527052613 11 123 0.0 0.0 0.00 0.00 0.00 91 1007.7
20240527052558 11 123 0.0 0.0 0.00 0.00 0.00 91 1007.6
20240527052522 11 123 0.0 0.0 0.00 0.00 0.00 91 1007.6
20240527052453 11 123 0.0 0.0 0.00 0.00 0.00 91 1007.6
20240527052424 11 123 0.0 0.0 0.00 0.00 0.00 91 1007.6
20240527052353 11 123 0.0 0.0 0.00 0.00 0.00 91 1007.7
20240527052042 11 123 0.0 0.0 0.00 0.00 0.00 91 1007.7
20240527051939 11 123 0.0 0.0 0.00 0.00 0.00 91 1007.7
20240527051838 11 123 0.0 0.0 0.00 0.00 0.00 91 1007.7
20240527051738 11 123 0.0 0.0 0.00 0.00 0.00 91 1007.8
20240527051635 11 123 0.0 0.0 0.00 0.00 0.00 91 1007.6
20240527051559 11 123 0.0 0.0 0.00 0.00 0.00 90 1007.6
20240527051544 11 123 0.0 0.0 0.00 0.00 0.00 91 1007.6
20240527051511 11 123 0.0 0.0 0.00 0.00 0.00 91 1007.7
20240527051443 11 123 0.0 0.0 0.00 0.00 0.00 91 1007.7
20240527051413 11 123 0.0 0.0 0.00 0.00 0.00 90 1007.6
20240527051132 11 123 0.0 0.0 0.00 0.00 0.00 90 1007.6
20240527051031 11 123 0.0 0.0 0.00 0.00 0.00 90 1007.7
20240527050932 11 123 0.0 0.0 0.00 0.00 0.00 90 1007.6
20240527050830 11 123 0.0 0.0 0.00 0.00 0.00 90 1007.6
20240527050731 11 123 0.0 0.0 0.00 0.00 0.00 90 1007.6
20240527050624 11 123 0.0 0.0 0.00 0.00 0.00 90 1007.6
20240527050521 11 123 0.0 0.0 0.00 0.00 0.00 90 1007.6
20240527050420 11 123 0.0 0.0 0.00 0.00 0.00 90 1007.6
20240527050316 11 123 0.0 0.0 0.00 0.00 0.00 90 1007.6
20240527050216 11 123 0.0 0.0 0.00 0.00 0.00 90 1007.6
20240527050130 11 123 0.0 0.0 0.00 0.00 0.00 90 1007.6
20240527050113 11 123 0.0 0.0 0.00 0.00 0.00 90 1007.7
20240527050053 11 123 0.0 0.0 0.00 0.00 0.00 90 1007.6
20240527050033 11 123 0.0 0.0 0.00 0.00 0.00 90 1007.6
20240527045954 11 123 0.0 0.0 0.00 0.00 0.00 90 1007.6
20240527045926 11 123 0.0 0.0 0.00 0.00 0.00 90 1007.6
20240527045859 11 123 0.0 0.0 0.00 0.00 0.00 90 1007.6
20240527045604 11 123 0.0 0.0 0.00 0.00 0.00 90 1007.6
20240527045506 11 123 0.0 0.0 0.00 0.00 0.00 90 1007.7
20240527045405 11 123 0.0 0.0 0.00 0.00 0.00 90 1007.6
20240527045306 11 123 0.0 0.0 0.00 0.00 0.00 90 1007.6
20240527045204 11 123 0.0 0.0 0.00 0.00 0.00 90 1007.6
20240527045104 11 123 0.0 0.0 0.00 0.00 0.00 90 1007.6
20240527045053 11 123 0.0 0.0 0.00 0.00 0.00 89 1007.6
20240527045028 11 123 0.0 0.0 0.00 0.00 0.00 90 1007.6
20240527044954 11 123 0.0 0.0 0.00 0.00 0.00 90 1007.6
20240527044927 11 123 0.0 0.0 0.00 0.00 0.00 89 1007.6
20240527044858 11 123 0.0 0.0 0.00 0.00 0.00 89 1007.6
20240527044603 11 123 0.0 0.0 0.00 0.00 0.00 89 1007.6
20240527044504 11 123 0.0 0.0 0.00 0.00 0.00 89 1007.6
20240527044404 11 123 0.0 0.0 0.00 0.00 0.00 89 1007.6
20240527044304 11 123 0.0 0.0 0.00 0.00 0.00 89 1007.7
20240527044202 11 123 0.0 0.0 0.00 0.00 0.00 89 1007.6
20240527044130 11 123 0.0 0.0 0.00 0.00 0.00 89 1007.6
20240527044100 11 123 0.0 0.0 0.00 0.00 0.00 89 1007.6
20240527044052 11 123 0.0 0.0 0.00 0.00 0.00 89 1007.6
20240527044027 11 123 0.0 0.0 0.00 0.00 0.00 89 1007.7
20240527043953 11 123 0.0 0.0 0.00 0.00 0.00 89 1007.5
20240527043925 11 123 0.0 0.0 0.00 0.00 0.00 89 1007.7
20240527043854 11 123 0.0 0.0 0.00 0.00 0.00 89 1007.6
20240527043554 11 123 0.0 0.0 0.00 0.00 0.00 89 1007.6
20240527043451 11 123 0.0 0.0 0.00 0.00 0.00 89 1007.7
20240527043352 11 123 0.0 0.0 0.00 0.00 0.00 88 1007.7
20240527043249 11 123 0.0 0.0 0.00 0.00 0.00 88 1007.7
20240527043130 11 123 0.0 0.0 0.00 0.00 0.00 88 1007.7
20240527043059 12 123 0.0 0.0 0.00 0.00 0.00 88 1007.7
20240527043049 11 123 0.0 0.0 0.00 0.00 0.00 88 1007.7
20240527043018 11 123 0.0 0.0 0.00 0.00 0.00 88 1007.7
20240527042946 11 123 0.0 0.0 0.00 0.00 0.00 88 1007.6
20240527042917 11 123 0.0 0.0 0.00 0.00 0.00 88 1007.7
20240527042847 12 123 0.0 0.0 0.00 0.00 0.00 88 1007.7
20240527042541 12 123 0.0 0.0 0.00 0.00 0.00 88 1007.7
20240527042437 12 123 0.0 0.0 0.00 0.00 0.00 88 1007.6
20240527042336 12 123 0.0 0.0 0.00 0.00 0.00 88 1007.6
20240527042234 12 123 0.0 0.0 0.00 0.00 0.00 88 1007.6
20240527042129 12 123 0.0 0.0 0.00 0.00 0.00 88 1007.6
20240527042032 12 123 0.0 0.0 0.00 0.00 0.00 88 1007.7
20240527041932 12 123 0.0 0.0 0.00 0.00 0.00 87 1007.7
20240527041832 12 123 0.0 0.0 0.00 0.00 0.00 87 1007.6
20240527041729 12 123 0.0 0.0 0.00 0.00 0.00 87 1007.7
20240527041628 12 123 0.0 0.0 0.00 0.00 0.00 87 1007.6
20240527041525 12 123 0.0 0.0 0.00 0.00 0.00 87 1007.6
20240527041453 12 123 0.0 0.0 0.00 0.00 0.00 87 1007.6
20240527041355 12 123 0.0 0.0 0.00 0.00 0.00 87 1007.6
20240527041256 12 123 0.0 0.0 0.00 0.00 0.00 86 1007.6
20240527041129 12 123 0.0 0.0 0.00 0.00 0.00 86 1007.6
20240527041054 12 123 0.0 0.0 0.00 0.00 0.00 86 1007.6
20240527040955 12 123 0.0 0.0 0.00 0.00 0.00 86 1007.6
20240527040852 12 123 0.0 0.0 0.00 0.00 0.00 86 1007.6
20240527040750 12 123 0.0 0.0 0.00 0.00 0.00 86 1007.5
20240527040647 12 123 0.0 0.0 0.00 0.00 0.00 86 1007.6
20240527040630 12 123 0.0 0.0 0.00 0.00 0.00 86 1007.5
20240527040548 12 123 0.0 0.0 0.00 0.00 0.00 86 1007.5
20240527040446 12 123 0.0 0.0 0.00 0.00 0.00 86 1007.6
20240527040346 12 123 0.0 0.0 0.00 0.00 0.00 86 1007.5
20240527040236 12 123 0.0 0.0 0.00 0.00 0.00 86 1007.6
20240527040142 12 123 0.0 0.0 0.00 0.00 0.00 85 1007.5
20240527040130 12 123 0.0 0.0 0.00 0.00 0.00 85 1007.6
20240527040038 12 123 0.0 0.0 0.00 0.00 0.00 85 1007.4
20240527035937 12 123 0.0 0.0 0.00 0.00 0.00 85 1007.4
20240527035835 12 123 0.0 0.0 0.00 0.00 0.00 85 1007.4
20240527035736 12 123 0.0 0.0 0.00 0.00 0.00 85 1007.4
20240527035640 12 123 0.0 0.0 0.00 0.00 0.00 85 1007.5
20240527035628 12 123 0.0 0.0 0.00 0.00 0.00 85 1007.4
20240527035536 12 123 0.0 0.0 0.00 0.00 0.00 85 1007.4
20240527035432 12 123 0.0 0.0 0.00 0.00 0.00 85 1007.5
20240527035330 12 123 0.0 0.0 0.00 0.00 0.00 84 1007.5
20240527035224 12 123 0.0 0.0 0.00 0.00 0.00 84 1007.5
20240527035129 12 123 0.0 0.0 0.00 0.00 0.00 84 1007.5
20240527035123 12 123 0.0 0.0 0.00 0.00 0.00 84 1007.5
20240527035023 12 123 0.0 0.0 0.00 0.00 0.00 84 1007.4
20240527034925 12 123 0.0 0.0 0.00 0.00 0.00 84 1007.5
20240527034819 12 123 0.0 0.0 0.00 0.00 0.00 84 1007.4
20240527034719 12 123 0.0 0.0 0.00 0.00 0.00 83 1007.4
20240527034626 12 123 0.0 0.0 0.00 0.00 0.00 83 1007.4
20240527034619 12 123 0.0 0.0 0.00 0.00 0.00 83 1007.4
20240527034518 12 123 0.0 0.0 0.00 0.00 0.00 83 1007.3
20240527034415 12 123 0.0 0.0 0.00 0.00 0.00 83 1007.4
20240527034311 13 123 0.0 0.0 0.00 0.00 0.00 83 1007.4
20240527034207 13 123 0.0 0.0 0.00 0.00 0.00 82 1007.4
20240527034127 13 123 0.0 0.0 0.00 0.00 0.00 82 1007.4
20240527034109 13 123 0.0 0.0 0.00 0.00 0.00 83 1007.4
20240527034005 13 123 0.0 0.0 0.00 0.00 0.00 82 1007.4
20240527033902 13 123 0.0 0.0 0.00 0.00 0.00 82 1007.4
20240527033803 13 123 0.0 0.0 0.00 0.00 0.00 82 1007.5
20240527033625 13 123 0.0 0.0 0.00 0.00 0.00 82 1007.4
20240527033600 13 123 0.0 0.0 0.00 0.00 0.00 82 1007.4
20240527033542 13 123 0.0 0.0 0.00 0.00 0.00 82 1007.4
20240527033440 13 123 0.0 0.0 0.00 0.00 0.00 82 1007.5
20240527033409 13 123 0.0 0.0 0.00 0.00 0.00 82 1007.4
20240527033339 13 123 0.0 0.0 0.00 0.00 0.00 82 1007.4
20240527033028 13 123 0.0 0.0 0.00 0.00 0.00 82 1007.5
20240527032929 13 123 0.0 0.0 0.00 0.00 0.00 82 1007.5
20240527032829 13 123 0.0 0.0 0.00 0.00 0.00 81 1007.5
20240527032726 13 123 0.0 0.0 0.00 0.00 0.00 81 1007.4
20240527032622 13 123 0.0 0.0 0.00 0.00 0.00 81 1007.4
20240527032550 13 123 0.0 0.0 0.00 0.00 0.00 81 1007.5
20240527032537 13 123 0.0 0.0 0.00 0.00 0.00 81 1007.4
20240527032506 13 123 0.0 0.0 0.00 0.00 0.00 81 1007.5
20240527032430 13 123 0.0 0.0 0.00 0.00 0.00 81 1007.5
20240527032401 13 123 0.0 0.0 0.00 0.00 0.00 81 1007.5
20240527032121 13 123 0.0 0.0 0.00 0.00 0.00 81 1007.5
20240527032018 13 123 0.0 0.0 0.00 0.00 0.00 81 1007.5
20240527031916 13 123 0.0 0.0 0.00 0.00 0.00 81 1007.5
20240527031815 13 123 0.0 0.0 0.00 0.00 0.00 80 1007.5
20240527031714 13 123 0.0 0.0 0.00 0.00 0.00 80 1007.4
20240527031613 13 123 0.0 0.0 0.00 0.00 0.00 80 1007.4
20240527031548 14 123 0.0 0.0 0.00 0.00 0.00 79 1007.5
20240527031527 13 123 0.0 0.0 0.00 0.00 0.00 80 1007.5
20240527031455 13 123 0.0 0.0 0.00 0.00 0.00 80 1007.5
20240527031420 14 123 0.0 0.0 0.00 0.00 0.00 80 1007.5
20240527031352 14 123 0.0 0.0 0.00 0.00 0.00 79 1007.5
20240527031104 14 123 0.0 0.0 0.00 0.00 0.00 79 1007.4
20240527031003 14 123 0.0 0.0 0.00 0.00 0.00 79 1007.5
20240527030903 14 123 0.0 0.0 0.00 0.00 0.00 79 1007.5
20240527030747 14 123 0.0 0.0 0.00 0.00 0.00 79 1007.6
20240527030623 14 123 0.0 0.0 0.00 0.00 0.00 79 1007.5
20240527030543 14 123 0.0 0.0 0.00 0.00 0.00 79 1007.6
20240527030437 14 123 0.0 0.0 0.00 0.00 0.00 79 1007.5
20240527030337 14 123 0.0 0.0 0.00 0.00 0.00 78 1007.6
20240527030234 15 123 0.0 0.0 0.00 0.00 0.00 78 1007.5
20240527030125 15 123 0.0 0.0 0.00 0.00 0.00 78 1007.5
20240527030031 15 123 0.0 0.0 0.00 0.00 0.00 78 1007.5
20240527025929 15 123 0.0 0.0 0.00 0.00 0.00 78 1007.5
20240527025832 15 123 0.0 0.0 0.00 0.00 0.00 78 1007.5
20240527025730 15 123 0.0 0.0 0.00 0.00 0.00 77 1007.6
20240527025624 15 123 0.0 0.0 0.00 0.00 0.00 77 1007.6
20240527025530 15 123 0.0 0.0 0.00 0.00 0.00 77 1007.5
20240527025428 15 123 0.0 0.0 0.00 0.00 0.00 77 1007.5
20240527025327 15 123 0.0 0.0 0.00 0.00 0.00 78 1007.5
20240527025224 15 123 0.0 0.0 0.00 0.00 0.00 78 1007.5
20240527025125 15 123 0.0 0.0 0.00 0.00 0.00 78 1007.4
20240527025110 15 123 0.0 0.0 0.00 0.00 0.00 78 1007.3
20240527025050 15 123 0.0 0.0 0.00 0.00 0.00 78 1007.4
20240527025022 15 123 0.0 0.0 0.00 0.00 0.00 78 1007.4
20240527024933 15 123 0.0 0.0 0.00 0.00 0.00 78 1007.4
20240527024907 15 123 0.0 0.0 0.00 0.00 0.00 78 1007.4
20240527024835 15 123 0.0 0.0 0.00 0.00 0.00 78 1007.3
20240527024526 15 123 0.0 0.0 0.00 0.00 0.00 78 1007.3
20240527024425 15 123 0.0 0.0 0.00 0.00 0.00 78 1007.3
20240527024330 15 123 0.0 0.0 0.00 0.00 0.00 78 1007.3
20240527024223 15 123 0.0 0.0 0.00 0.00 0.00 78 1007.3
20240527024125 15 123 0.0 0.0 0.00 0.00 0.00 78 1007.3
20240527024059 15 123 0.0 0.0 0.00 0.00 0.00 78 1007.1
20240527024040 15 123 0.0 0.0 0.00 0.00 0.00 77 1007.3
20240527024011 15 123 0.0 0.0 0.00 0.00 0.00 78 1007.3
20240527023939 15 123 0.0 0.0 0.00 0.00 0.00 78 1007.2
20240527023907 15 123 0.0 0.0 0.00 0.00 0.00 77 1007.2
20240527023837 15 123 0.0 0.0 0.00 0.00 0.00 78 1007.1
20240527023524 15 123 0.0 0.0 0.00 0.00 0.00 78 1007.1
20240527023425 15 123 0.0 0.0 0.00 0.00 0.00 78 1007.1
20240527023326 15 123 0.0 0.0 0.00 0.00 0.00 78 1007.1
20240527023223 15 123 0.0 0.0 0.00 0.00 0.00 78 1007.1
20240527023126 15 123 0.0 0.0 0.00 0.00 0.00 77 1007.0
20240527023054 15 123 0.0 0.0 0.00 0.00 0.00 76 1006.9
20240527023038 15 123 0.0 0.0 0.00 0.00 0.00 77 1007.0
20240527023009 15 123 0.0 0.0 0.00 0.00 0.00 76 1007.0
20240527022939 15 123 0.0 0.0 0.00 0.00 0.00 76 1007.0
20240527022906 15 123 0.0 0.0 0.00 0.00 0.00 76 1006.8
20240527022837 15 123 0.0 0.0 0.00 0.00 0.00 76 1006.9
20240527022525 15 123 0.0 0.0 0.00 0.00 0.00 76 1006.9
20240527022424 15 123 0.0 0.0 0.00 0.00 0.00 76 1006.9
20240527022325 15 123 0.0 0.0 0.00 0.00 0.00 75 1006.9
20240527022223 16 123 0.0 0.0 0.00 0.00 0.00 75 1006.8
20240527022125 16 123 0.0 0.0 0.00 0.00 0.00 75 1006.8
20240527022024 16 123 0.0 0.0 0.00 0.00 0.00 75 1006.7
20240527021925 16 123 0.0 0.0 0.00 0.00 0.00 75 1006.7
20240527021824 16 123 0.0 0.0 0.00 0.00 0.00 75 1006.7
20240527021726 16 123 0.0 0.0 0.00 0.00 0.00 75 1006.7
20240527021625 16 123 0.0 0.0 0.00 0.00 0.00 74 1006.7
20240527021524 16 123 0.0 0.0 0.00 0.00 0.00 74 1006.7
20240527021426 16 123 0.0 0.0 0.00 0.00 0.00 74 1006.6
20240527021329 16 123 0.0 0.0 0.00 0.00 0.00 73 1006.6
20240527021225 16 123 0.0 0.0 0.00 0.00 0.00 72 1006.6
20240527021126 16 123 0.0 0.0 0.00 0.00 0.00 72 1006.6
20240527021024 16 123 0.0 0.0 0.00 0.00 0.00 72 1006.6
20240527020927 16 123 0.0 0.0 0.00 0.00 0.00 72 1006.6
20240527020823 16 123 0.0 0.0 0.00 0.00 0.00 72 1006.6
20240527020724 16 123 0.0 0.0 0.00 0.00 0.00 71 1006.6
20240527020604 16 123 0.0 0.0 0.00 0.00 0.00 71 1006.6
20240527020526 16 123 0.0 0.0 0.00 0.00 0.00 71 1006.6
20240527020425 16 123 0.0 0.0 0.00 0.00 0.00 71 1006.5
20240527020305 16 123 0.0 0.0 0.00 0.00 0.00 71 1006.4
20240527020204 16 123 0.0 0.0 0.00 0.00 0.00 71 1006.4
20240527020104 16 123 0.0 0.0 0.00 0.00 0.00 71 1006.5
20240527020003 16 123 0.0 0.0 0.00 0.00 0.00 70 1006.4
20240527015902 16 123 0.0 0.0 0.00 0.00 0.00 70 1006.4
20240527015748 16 123 0.0 0.0 0.00 0.00 0.00 70 1006.4
20240527015646 16 123 0.0 0.0 0.00 0.00 0.00 70 1006.3
20240527015602 16 123 0.0 0.0 0.00 0.00 0.00 70 1006.5
20240527015544 16 123 0.0 0.0 0.00 0.00 0.00 70 1006.5
20240527015443 16 123 0.0 0.0 0.00 0.00 0.00 70 1006.4
20240527015342 16 123 0.0 0.0 0.00 0.00 0.00 70 1006.4
20240527015241 17 121 0.0 0.0 0.00 0.00 0.00 69 1006.4
20240527015140 17 123 0.0 0.0 0.00 0.00 0.00 69 1006.4
20240527015104 17 123 0.0 0.0 0.00 0.00 0.00 69 1006.4
20240527015036 17 123 0.0 0.0 0.00 0.00 0.00 69 1006.4
20240527014935 17 123 0.0 0.0 0.00 0.00 0.00 69 1006.4
20240527014833 17 121 0.0 0.0 0.00 0.00 0.00 68 1006.4
20240527014738 17 123 0.0 0.0 0.00 0.00 0.00 68 1006.4
20240527014632 17 128 0.0 0.0 0.00 0.00 0.00 67 1006.3
20240527014603 17 128 0.0 0.0 0.00 0.00 0.00 67 1006.4
20240527014530 17 128 0.0 0.0 0.00 0.00 0.00 67 1006.4
20240527014426 17 128 0.0 0.0 0.00 0.00 0.00 67 1006.3
20240527014327 17 128 0.0 0.0 0.00 0.00 0.00 67 1006.3
20240527014223 17 128 0.0 0.0 0.00 0.00 0.00 67 1006.3
20240527014126 17 123 0.0 0.0 0.00 0.00 0.00 67 1006.3
20240527014025 17 123 0.0 0.0 0.00 0.00 0.00 67 1006.3
20240527013927 17 121 0.0 0.0 0.00 0.00 0.00 67 1006.3
20240527013823 17 121 0.0 0.0 0.00 0.00 0.00 66 1006.3
20240527013724 17 121 0.0 0.0 0.00 0.00 0.00 66 1006.3
20240527013625 17 110 0.0 0.0 0.00 0.00 0.00 66 1006.3
20240527013525 17 120 0.0 0.0 0.00 0.00 0.00 66 1006.3
20240527013504 18 120 0.0 0.0 0.00 0.00 0.00 65 1006.2
20240527013448 18 127 0.0 0.0 0.00 0.00 0.00 64 1006.2
20240527013435 18 120 0.0 0.0 0.00 0.00 0.00 65 1006.3
20240527013405 18 120 0.0 0.0 0.00 0.00 0.00 65 1006.3
20240527013308 18 123 0.0 0.0 0.00 0.00 0.00 65 1006.2
20240527013000 18 138 0.0 0.0 0.00 0.00 0.00 64 1006.2
20240527012851 18 141 0.0 0.0 0.00 0.00 0.00 64 1006.2
20240527012754 18 83 0.0 0.0 0.00 0.00 0.00 64 1006.1
20240527012654 18 59 0.0 0.0 0.00 0.00 0.00 63 1006.2
20240527012554 18 92 0.0 0.0 0.00 0.00 0.00 63 1006.2
20240527012528 18 114 0.0 0.0 0.00 0.00 0.00 63 1006.2
20240527012454 18 66 0.0 0.0 0.00 0.00 0.00 61 1006.1
20240527012403 18 66 0.0 0.0 0.00 0.00 0.00 61 1006.1
20240527012357 18 73 0.0 0.0 0.00 0.00 0.00 61 1006.1
20240527012344 18 66 0.0 0.0 0.00 0.00 0.00 61 1006.2
20240527012304 18 66 0.0 0.0 0.00 0.00 0.00 61 1006.0
20240527011959 18 72 0.0 0.0 0.00 0.00 0.00 60 1006.0
20240527011855 18 72 0.0 0.0 0.00 0.00 0.00 60 1006.0
20240527011758 18 72 0.0 0.0 0.00 0.00 0.00 60 1006.1
20240527011653 18 72 0.0 0.0 0.00 0.00 0.00 60 1006.0
20240527011526 18 72 0.0 0.0 0.00 0.00 0.00 60 1006.1
20240527011504 18 73 0.0 0.0 0.00 0.00 0.00 60 1006.0
20240527011445 19 76 0.0 0.0 0.00 0.00 0.00 59 1006.0
20240527011406 18 73 0.0 0.0 0.00 0.00 0.00 60 1006.0
20240527011307 19 76 0.0 0.0 0.00 0.00 0.00 59 1006.0
20240527010950 19 76 0.0 0.0 0.00 0.00 0.00 59 1006.0
20240527010849 19 76 0.0 0.0 0.00 0.00 0.00 59 1006.0
20240527010745 19 76 0.0 0.0 0.00 0.00 0.00 59 1006.0
20240527010645 19 75 0.0 0.0 0.00 0.00 0.00 58 1006.0
20240527010522 19 75 0.0 0.0 0.00 0.00 0.00 58 1006.0
20240527010502 19 75 0.0 0.0 0.00 0.00 0.00 57 1006.0
20240527010452 19 76 0.0 0.0 0.00 0.00 0.00 57 1006.0
20240527010446 19 76 0.0 0.0 0.00 0.00 0.00 57 1006.1
20240527010401 19 89 0.0 0.0 0.00 0.00 0.00 58 1006.0
20240527010257 19 85 0.0 0.0 0.00 0.00 0.00 57 1006.0
20240527005938 19 76 0.0 0.0 0.00 0.00 0.00 58 1006.0
20240527005836 20 71 0.0 0.0 0.00 0.00 0.00 57 1006.0
20240527005731 20 71 0.0 0.0 0.00 0.00 0.00 57 1006.0
20240527005635 20 71 0.0 0.0 0.00 0.00 0.00 57 1005.9
20240527005537 20 90 0.0 0.0 0.00 0.00 0.00 56 1005.9
20240527005524 20 71 0.0 0.0 0.00 0.00 0.00 56 1005.9
20240527005405 20 65 0.0 0.0 0.00 0.00 0.00 56 1005.9
20240527005238 20 65 0.0 0.0 0.00 0.00 0.00 56 1005.9
20240527005135 20 86 0.0 1.6 0.00 0.00 0.00 55 1005.9
20240527005024 20 86 0.0 1.6 0.00 0.00 0.00 55 1005.9
20240527005010 20 80 0.0 1.6 0.00 0.00 0.00 56 1005.8
20240527004912 20 61 0.0 1.6 0.00 0.00 0.00 56 1005.8
20240527004809 20 59 0.0 1.6 0.00 0.00 0.00 56 1005.8
20240527004706 20 83 0.0 1.6 0.00 0.00 0.00 57 1005.8
20240527004608 20 85 0.0 1.6 0.00 0.00 0.00 56 1005.9
20240527004524 20 85 0.0 1.6 0.00 0.00 0.00 56 1005.9
20240527004504 20 63 0.0 1.6 0.00 0.00 0.00 56 1005.9
20240527004403 20 104 0.0 1.6 0.00 0.00 0.00 58 1005.8
20240527004258 20 107 0.0 1.6 0.00 0.00 0.00 55 1005.9
20240527004155 20 76 0.0 0.0 0.00 0.00 0.00 56 1005.8
20240527004103 20 65 0.0 0.0 0.00 0.00 0.00 55 1005.8
20240527004026 20 65 0.0 0.0 0.00 0.00 0.00 55 1005.8
20240527003956 20 66 0.0 1.6 0.00 0.00 0.00 55 1005.8
20240527003855 20 58 0.0 1.6 0.00 0.00 0.00 56 1005.8
20240527003756 20 75 0.0 1.6 0.00 0.00 0.00 54 1005.8
20240527003652 20 75 0.0 1.6 0.00 0.00 0.00 54 1005.8
20240527003601 20 354 0.0 1.6 0.00 0.00 0.00 54 1005.8
20240527003525 20 354 0.0 1.6 0.00 0.00 0.00 54 1005.8
20240527003456 20 63 0.0 1.6 0.00 0.00 0.00 55 1005.7
20240527003358 20 65 0.0 1.6 0.00 0.00 0.00 56 1005.8
20240527003254 20 63 0.0 1.6 0.00 0.00 0.00 55 1005.8
20240527003156 21 76 0.0 1.6 0.00 0.00 0.00 54 1005.7
20240527003102 20 73 0.0 1.6 0.00 0.00 0.00 54 1005.8
20240527003025 20 73 0.0 1.6 0.00 0.00 0.00 54 1005.8
20240527002957 20 34 0.0 0.0 0.00 0.00 0.00 55 1005.7
20240527002854 21 48 0.0 0.0 0.00 0.00 0.00 55 1005.7
20240527002754 20 68 0.0 0.0 0.00 0.00 0.00 55 1005.7
20240527002655 20 54 0.0 0.0 0.00 0.00 0.00 54 1005.7
20240527002602 21 38 0.0 0.0 0.00 0.00 0.00 56 1005.8
20240527002528 21 38 0.0 0.0 0.00 0.00 0.00 56 1005.8
20240527002458 21 69 0.0 0.0 0.00 0.00 0.00 55 1005.7
20240527002353 20 69 0.0 0.0 0.00 0.00 0.00 55 1005.7
20240527002251 20 92 0.0 0.0 0.00 0.00 0.00 56 1005.7
20240527002154 20 86 0.0 0.0 0.00 0.00 0.00 56 1005.7
20240527002059 20 24 0.0 0.0 0.00 0.00 0.00 55 1005.7
20240527002024 20 24 0.0 0.0 0.00 0.00 0.00 55 1005.7
20240527001958 20 52 0.0 0.0 0.00 0.00 0.00 56 1005.8
20240527001857 20 24 0.0 0.0 0.00 0.00 0.00 56 1005.7
20240527001755 20 14 0.0 0.0 0.00 0.00 0.00 57 1005.7
20240527001655 20 65 0.0 0.0 0.00 0.00 0.00 56 1005.7
20240527001600 21 65 0.0 0.0 0.00 0.00 0.00 55 1005.7
20240527001523 21 65 0.0 0.0 0.00 0.00 0.00 55 1005.7
20240527001500 21 68 0.0 0.0 0.00 0.00 0.00 55 1005.6
20240527001358 21 66 0.0 0.0 0.00 0.00 0.00 55 1005.6
20240527001222 21 82 0.0 0.0 0.00 0.00 0.00 56 1005.6
20240527001125 21 79 0.0 0.0 0.00 0.00 0.00 56 1005.6
20240527001022 21 78 0.0 0.0 0.00 0.00 0.00 56 1005.6
20240527000950 21 61 0.0 0.0 0.00 0.00 0.00 56 1005.3
20240527000936 21 75 0.0 0.0 0.00 0.00 0.00 54 1005.5
20240527000905 21 93 0.0 0.0 0.00 0.00 0.00 56 1005.5
20240527000838 21 109 0.0 0.0 0.00 0.00 0.00 56 1005.5
20240527000805 21 157 0.0 0.0 0.00 0.00 0.00 55 1005.3
20240527000735 21 61 0.0 0.0 0.00 0.00 0.00 56 1005.3
20240527000424 21 135 0.0 0.0 0.00 0.00 0.00 57 1005.2
20240527000325 21 55 0.0 0.0 0.00 0.00 0.00 57 1005.2
20240527000222 21 94 0.0 0.0 0.00 0.00 0.00 57 1005.3
20240527000124 21 62 0.0 0.0 0.00 0.00 0.00 57 1005.3
20240527000024 21 59 0.0 0.0 0.00 0.00 0.00 58 1005.3
20240526235955 21 39 0.0 0.0 0.00 0.00 0.00 58 1005.5
20240526235940 21 0 0.0 0.0 0.00 0.00 0.00 56 1005.3
20240526235908 21 39 0.0 0.0 0.00 0.00 0.00 56 1005.3
20240526235839 21 63 0.0 0.0 0.00 0.00 0.00 56 1005.5
20240526235806 21 73 0.0 0.0 0.00 0.00 0.00 57 1005.5
20240526235739 21 39 0.0 0.0 0.00 0.00 0.00 58 1005.5
20240526235424 21 42 0.0 0.0 0.00 0.00 0.00 57 1005.5
20240526235324 21 44 0.0 0.0 0.00 0.00 0.00 56 1005.3
20240526235223 21 14 0.0 0.0 0.00 0.00 0.00 58 1005.3
20240526235124 21 38 0.0 0.0 0.00 0.00 0.00 57 1005.3
20240526235030 21 34 0.0 0.0 0.00 0.00 0.00 57 1005.3
20240526234953 21 24 0.0 0.0 0.00 0.00 0.00 59 1005.2
20240526234939 21 35 0.0 0.0 0.00 0.00 0.00 57 1005.3
20240526234908 21 34 0.0 0.0 0.00 0.00 0.00 57 1005.3
20240526234840 21 55 0.0 0.0 0.00 0.00 0.00 57 1005.3
20240526234808 21 51 0.0 0.0 0.00 0.00 0.00 57 1005.3
20240526234737 21 24 0.0 0.0 0.00 0.00 0.00 59 1005.2
20240526234425 21 0 0.0 0.0 0.00 0.00 0.00 60 1005.2
20240526234325 21 0 0.0 0.0 0.00 0.00 0.00 58 1005.2
20240526234223 21 82 0.0 0.0 0.00 0.00 0.00 60 1005.3
20240526234123 21 25 0.0 0.0 0.00 0.00 0.00 60 1005.2
20240526234025 21 51 0.0 0.0 0.00 0.00 0.00 57 1005.3
20240526233926 21 63 0.0 0.0 0.00 0.00 0.00 59 1005.3
20240526233823 21 90 0.0 0.0 0.00 0.00 0.00 60 1005.5
20240526233725 21 14 0.0 0.0 0.00 0.00 0.00 59 1005.3
20240526233622 21 97 0.0 0.0 0.00 0.00 0.00 58 1005.5
20240526233525 21 104 0.0 0.0 0.00 0.00 0.00 59 1005.3
20240526233425 21 6 0.0 0.0 0.00 0.00 0.00 59 1005.3
20240526233325 21 55 0.0 0.0 0.00 0.00 0.00 59 1005.3
20240526233223 21 173 0.0 0.0 0.00 0.00 0.00 60 1005.5
20240526233129 21 76 0.0 0.0 0.00 0.00 0.00 60 1005.3
20240526233025 21 76 0.0 0.0 0.00 0.00 0.00 60 1005.3
20240526232928 21 76 0.0 0.0 0.00 0.00 0.00 60 1005.3
20240526232824 21 75 0.0 0.0 0.00 0.00 0.00 60 1005.3
20240526232726 21 71 0.0 0.0 0.00 0.00 0.00 61 1005.3
20240526232628 21 73 0.0 0.0 0.00 0.00 0.00 61 1005.2
20240526232525 21 73 0.0 0.0 0.00 0.00 0.00 60 1005.2
20240526232506 21 73 0.0 0.0 0.00 0.00 0.00 60 1005.3
20240526232425 21 73 0.0 0.0 0.00 0.00 0.00 61 1005.3
20240526232325 21 78 0.0 0.0 0.00 0.00 0.00 62 1005.3
20240526232223 21 82 0.0 0.0 0.00 0.00 0.00 62 1005.3
20240526232127 21 23 0.0 0.0 0.00 0.00 0.00 60 1005.3
20240526232022 21 18 0.0 0.0 0.00 0.00 0.00 61 1005.3
20240526232006 21 51 0.0 0.0 0.00 0.00 0.00 61 1005.3
20240526231925 21 61 0.0 0.0 0.00 0.00 0.00 60 1005.3
20240526231822 21 21 0.0 0.0 0.00 0.00 0.00 59 1005.3
20240526231723 21 32 0.0 0.0 0.00 0.00 0.00 60 1005.3
20240526231624 21 66 0.0 0.0 0.00 0.00 0.00 61 1005.3
20240526231523 21 1 0.0 0.0 0.00 0.00 0.00 61 1005.2
20240526231504 21 1 0.0 0.0 0.00 0.00 0.00 61 1005.3
20240526231425 21 0 0.0 0.0 0.00 0.00 0.00 61 1005.3
20240526231322 21 52 0.0 0.0 0.00 0.00 0.00 61 1005.2
20240526231222 21 82 0.0 0.0 0.00 0.00 0.00 61 1005.3
20240526231124 21 79 0.0 0.0 0.00 0.00 0.00 61 1005.3
20240526231024 21 93 0.0 0.0 0.00 0.00 0.00 62 1005.3
20240526231005 21 93 0.0 0.0 0.00 0.00 0.00 62 1005.5
20240526230926 21 93 0.0 0.0 0.00 0.00 0.00 61 1005.5
20240526230823 21 85 0.0 0.0 0.00 0.00 0.00 60 1005.3
20240526230724 21 79 0.0 0.0 0.00 0.00 0.00 58 1005.5
20240526230624 21 56 0.0 0.0 0.00 0.00 0.00 60 1005.5
20240526230523 21 71 0.0 0.0 0.00 0.00 0.00 60 1005.3
20240526230505 21 76 0.0 0.0 0.00 0.00 0.00 62 1005.5
20240526230424 21 82 0.0 0.0 0.00 0.00 0.00 62 1005.5
20240526230323 21 21 0.0 0.0 0.00 0.00 0.00 61 1005.3
20240526230223 21 42 0.0 0.0 0.00 0.00 0.00 62 1005.3
20240526230124 21 17 0.0 0.0 0.00 0.00 0.00 61 1005.3
20240526230023 21 48 0.0 0.0 0.00 0.00 0.00 61 1005.3
20240526230002 21 189 0.0 0.0 0.00 0.00 0.00 62 1005.3
20240526225925 21 186 0.0 0.0 0.00 0.00 0.00 62 1005.2
20240526225823 21 48 0.0 0.0 0.00 0.00 0.00 61 1005.2
20240526225725 21 90 0.0 0.0 0.00 0.00 0.00 61 1005.2
20240526225623 21 285 0.0 0.0 0.00 0.00 0.00 62 1005.2
20240526225522 21 71 0.0 0.0 0.00 0.00 0.00 60 1005.2
20240526225502 21 78 0.0 0.0 0.00 0.00 0.00 60 1005.3
20240526225435 22 69 0.0 0.0 0.00 0.00 0.00 62 1005.3
20240526225427 21 127 0.0 0.0 0.00 0.00 0.00 60 1005.3
20240526225357 22 23 0.0 0.0 0.00 0.00 0.00 58 1005.3
20240526225329 22 44 0.0 0.0 0.00 0.00 0.00 62 1005.5
20240526225301 22 87 0.0 0.0 0.00 0.00 0.00 62 1005.5
20240526225227 22 76 0.0 0.0 0.00 0.00 0.00 62 1005.3
20240526224925 22 68 0.0 0.0 0.00 0.00 0.00 61 1005.3
20240526224823 22 75 0.0 0.0 0.00 0.00 0.00 62 1005.3
20240526224724 22 65 0.0 0.0 0.00 0.00 0.00 60 1005.5
20240526224624 22 65 0.0 0.0 0.00 0.00 0.00 65 1005.5
20240526224523 22 71 0.0 0.0 0.00 0.00 0.00 69 1005.5
20240526224503 21 71 0.0 0.0 0.00 0.00 0.00 69 1005.3
20240526224448 20 104 0.0 1.6 0.00 0.00 0.00 67 1005.5
20240526224434 21 71 0.0 0.0 0.00 0.00 0.00 68 1005.3
20240526224402 21 69 0.0 0.0 0.00 0.00 0.00 66 1005.3
20240526224330 21 69 0.0 0.0 0.00 0.00 0.00 64 1005.5
20240526224301 20 71 0.0 0.0 0.00 0.00 0.00 64 1005.5
20240526224227 20 104 0.0 1.6 0.00 0.00 0.00 67 1005.5
20240526223925 20 109 0.0 1.6 0.00 0.00 0.00 69 1005.5
20240526223823 20 107 0.0 1.6 0.00 0.00 0.00 68 1005.5
20240526223723 20 78 0.0 1.6 0.00 0.00 0.00 67 1005.5
20240526223623 20 68 0.0 1.6 0.00 0.00 0.00 67 1005.5
20240526223524 20 76 0.0 1.6 0.00 0.00 0.00 67 1005.5
20240526223504 20 93 0.0 1.6 0.00 0.00 0.00 64 1005.5
20240526223425 20 93 0.0 1.6 0.00 0.00 0.00 64 1005.5
20240526223353 20 83 0.0 0.0 0.00 0.00 0.00 65 1005.5
20240526223343 20 93 0.0 1.6 0.00 0.00 0.00 64 1005.6
20240526223320 20 93 0.0 1.6 0.00 0.00 0.00 64 1005.5
20240526223259 20 107 0.0 1.6 0.00 0.00 0.00 64 1005.5
20240526223226 20 97 0.0 0.0 0.00 0.00 0.00 65 1005.6
20240526222925 20 72 0.0 0.0 0.00 0.00 0.00 65 1005.5
20240526222824 20 71 0.0 0.0 0.00 0.00 0.00 65 1005.5
20240526222722 20 23 0.0 0.0 0.00 0.00 0.00 65 1005.5
20240526222623 20 47 0.0 0.0 0.00 0.00 0.00 66 1005.3
20240526222523 20 65 0.0 3.2 0.00 0.00 0.00 66 1005.3
20240526222458 20 63 0.0 3.2 0.00 0.00 0.00 66 1005.5
20240526222426 20 71 0.0 3.2 0.00 0.00 0.00 66 1005.5
20240526222416 20 85 0.0 3.2 0.00 0.00 0.00 65 1005.3
20240526222352 21 63 0.0 3.2 0.00 0.00 0.00 65 1005.5
20240526222322 21 63 0.0 3.2 0.00 0.00 0.00 66 1005.3
20240526222254 21 80 0.0 3.2 0.00 0.00 0.00 67 1005.3
20240526222223 20 42 0.0 3.2 0.00 0.00 0.00 67 1005.2
20240526221925 20 113 0.0 3.2 0.00 0.00 0.00 65 1005.3
20240526221823 21 76 0.0 3.2 0.00 0.00 0.00 64 1005.3
20240526221722 21 79 0.0 3.2 0.00 0.00 0.00 65 1005.3
20240526221623 21 128 0.0 3.2 0.00 0.00 0.00 65 1005.3
20240526221524 21 71 0.0 1.6 0.00 0.00 0.00 66 1005.3
20240526221453 21 71 0.0 1.6 0.00 0.00 0.00 66 1005.3
20240526221424 20 63 0.0 1.6 0.00 0.00 0.00 66 1005.3
20240526221324 20 94 0.0 1.6 0.00 0.00 0.00 68 1005.2
20240526221221 20 58 0.0 1.6 0.00 0.00 0.00 68 1005.2
20240526221120 20 62 0.0 1.6 0.00 0.00 0.00 67 1005.2
20240526221017 20 56 0.0 1.6 0.00 0.00 0.00 67 1005.3
20240526220950 20 87 0.0 1.6 0.00 0.00 0.00 67 1005.3
20240526220917 20 75 0.0 0.0 0.00 0.00 0.00 67 1005.2
20240526220909 20 0 0.0 0.0 0.00 0.00 0.00 66 1005.2
20240526220843 20 61 0.0 0.0 0.00 0.00 0.00 67 1005.2
20240526220818 20 63 0.0 0.0 0.00 0.00 0.00 67 1005.2
20240526220750 20 39 0.0 0.0 0.00 0.00 0.00 66 1005.2
20240526220719 20 0 0.0 0.0 0.00 0.00 0.00 66 1005.2
20240526220411 20 18 0.0 0.0 0.00 0.00 0.00 66 1005.2
20240526220308 20 0 0.0 0.0 0.00 0.00 0.00 65 1005.2
20240526220208 20 100 0.0 0.0 0.00 0.00 0.00 67 1005.2
20240526220104 20 0 0.0 0.0 0.00 0.00 0.00 67 1005.2
20240526220007 20 0 0.0 0.0 0.00 0.00 0.00 65 1005.3
20240526215953 20 358 0.0 0.0 0.00 0.00 0.00 65 1005.3
20240526215926 20 68 0.0 1.6 0.00 0.00 0.00 68 1005.3
20240526215913 20 31 0.0 0.0 0.00 0.00 0.00 67 1005.2
20240526215843 20 48 0.0 1.6 0.00 0.00 0.00 66 1005.3
20240526215811 20 54 0.0 1.6 0.00 0.00 0.00 65 1005.2
20240526215742 20 66 0.0 1.6 0.00 0.00 0.00 68 1005.3
20240526215709 20 72 0.0 1.6 0.00 0.00 0.00 68 1005.3
20240526215402 20 61 0.0 1.6 0.00 0.00 0.00 70 1005.2
20240526215303 20 61 0.0 1.6 0.00 0.00 0.00 68 1005.3
20240526215203 20 62 0.0 1.6 0.00 0.00 0.00 69 1005.2
20240526215103 20 62 0.0 1.6 0.00 0.00 0.00 67 1005.3
20240526215005 20 14 0.0 1.6 0.00 0.00 0.00 67 1005.2
20240526214949 20 14 0.0 1.6 0.00 0.00 0.00 67 1005.2
20240526214905 20 72 0.0 1.6 0.00 0.00 0.00 67 1005.3
20240526214853 20 113 0.0 0.0 0.00 0.00 0.00 70 1005.3
20240526214831 20 58 0.0 0.0 0.00 0.00 0.00 67 1005.3
20240526214808 20 49 0.0 0.0 0.00 0.00 0.00 69 1005.3
20240526214739 20 202 0.0 0.0 0.00 0.00 0.00 70 1005.2
20240526214708 20 61 0.0 0.0 0.00 0.00 0.00 70 1005.3
20240526214359 20 41 0.0 0.0 0.00 0.00 0.00 69 1005.3
20240526214258 20 58 0.0 0.0 0.00 0.00 0.00 68 1005.3
20240526214157 20 71 0.0 0.0 0.00 0.00 0.00 68 1005.3
20240526214055 20 75 0.0 0.0 0.00 0.00 0.00 68 1005.5
20240526213958 20 56 0.0 0.0 0.00 0.00 0.00 70 1005.3
20240526213946 20 56 0.0 0.0 0.00 0.00 0.00 68 1005.3
20240526213917 20 69 0.0 0.0 0.00 0.00 0.00 69 1005.3
20240526213903 20 80 0.0 0.0 0.00 0.00 0.00 68 1005.3
20240526213835 20 45 0.0 0.0 0.00 0.00 0.00 68 1005.5
20240526213807 20 110 0.0 0.0 0.00 0.00 0.00 69 1005.5
20240526213737 20 42 0.0 0.0 0.00 0.00 0.00 70 1005.5
20240526213701 20 69 0.0 0.0 0.00 0.00 0.00 69 1005.3
20240526213345 20 69 0.0 0.0 0.00 0.00 0.00 69 1005.7
20240526213244 20 68 0.0 0.0 0.00 0.00 0.00 69 1005.5
20240526213145 20 79 0.0 0.0 0.00 0.00 0.00 68 1005.6
20240526213112 20 89 0.0 0.0 0.00 0.00 0.00 68 1005.5
20240526212942 20 0 0.0 0.0 0.00 0.00 0.00 69 1005.6
20240526212909 20 7 0.0 0.0 0.00 0.00 0.00 71 1005.5
20240526212806 20 0 0.0 0.0 0.00 0.00 0.00 70 1005.6
20240526212704 20 0 0.0 0.0 0.00 0.00 0.00 70 1005.5
20240526212606 20 65 0.0 0.0 0.00 0.00 0.00 71 1005.6
20240526212441 20 72 0.0 0.0 0.00 0.00 0.00 72 1005.5
20240526212405 20 69 0.0 0.0 0.00 0.00 0.00 71 1005.6
20240526212303 20 66 0.0 0.0 0.00 0.00 0.00 71 1005.6
20240526212202 19 75 0.0 0.0 0.00 0.00 0.00 71 1005.6
20240526212108 19 54 0.0 0.0 0.00 0.00 0.00 73 1005.5
20240526211941 19 90 0.0 0.0 0.00 0.00 0.00 72 1005.5
20240526211902 19 90 0.0 0.0 0.00 0.00 0.00 72 1005.6
20240526211801 19 90 0.0 0.0 0.00 0.00 0.00 73 1005.6
20240526211655 19 66 0.0 0.0 0.00 0.00 0.00 73 1005.6
20240526211555 19 65 0.0 0.0 0.00 0.00 0.00 73 1005.5
20240526211455 19 61 0.0 0.0 0.00 0.00 0.00 73 1005.6
20240526211440 19 90 0.0 0.0 0.00 0.00 0.00 73 1005.6
20240526211352 19 34 0.0 0.0 0.00 0.00 0.00 73 1005.5
20240526211252 19 34 0.0 0.0 0.00 0.00 0.00 72 1005.5
20240526211155 19 34 0.0 0.0 0.00 0.00 0.00 72 1005.6
20240526211053 19 30 0.0 0.0 0.00 0.00 0.00 72 1005.6
20240526210956 19 0 0.0 0.0 0.00 0.00 0.00 72 1005.6
20240526210939 19 27 0.0 0.0 0.00 0.00 0.00 72 1005.5
20240526210853 19 0 0.0 0.0 0.00 0.00 0.00 72 1005.6
20240526210751 19 49 0.0 0.0 0.00 0.00 0.00 73 1005.6
20240526210653 19 111 0.0 0.0 0.00 0.00 0.00 74 1005.6
20240526210552 19 48 0.0 0.0 0.00 0.00 0.00 75 1005.6
20240526210455 18 66 0.0 0.0 0.00 0.00 0.00 74 1005.5
20240526210439 19 71 0.0 0.0 0.00 0.00 0.00 74 1005.5
20240526210352 18 0 0.0 0.0 0.00 0.00 0.00 74 1005.5
20240526210252 18 0 0.0 0.0 0.00 0.00 0.00 75 1005.6
20240526210153 18 55 0.0 0.0 0.00 0.00 0.00 75 1005.5
20240526210054 18 55 0.0 0.0 0.00 0.00 0.00 74 1005.5
20240526205937 18 55 0.0 0.0 0.00 0.00 0.00 73 1005.5
20240526205850 18 55 0.0 0.0 0.00 0.00 0.00 73 1005.5
20240526205750 18 55 0.0 0.0 0.00 0.00 0.00 73 1005.5
20240526205650 18 58 0.0 0.0 0.00 0.00 0.00 74 1005.3
20240526205549 18 59 0.0 0.0 0.00 0.00 0.00 73 1005.3
20240526205449 18 51 0.0 0.0 0.00 0.00 0.00 73 1005.3
20240526205437 18 59 0.0 0.0 0.00 0.00 0.00 73 1005.3
20240526205343 18 62 0.0 0.0 0.00 0.00 0.00 74 1005.5
20240526205246 18 66 0.0 0.0 0.00 0.00 0.00 74 1005.3
20240526205112 18 66 0.0 0.0 0.00 0.00 0.00 74 1005.5
20240526205009 18 68 0.0 0.0 0.00 0.00 0.00 73 1005.6
20240526204937 18 68 0.0 0.0 0.00 0.00 0.00 73 1005.6
20240526204907 18 68 0.0 0.0 0.00 0.00 0.00 73 1005.6
20240526204806 18 62 0.0 0.0 0.00 0.00 0.00 74 1005.3
20240526204704 18 68 0.0 0.0 0.00 0.00 0.00 74 1005.5
20240526204604 18 58 0.0 0.0 0.00 0.00 0.00 74 1005.3
20240526204505 18 52 0.0 0.0 0.00 0.00 0.00 74 1005.3
20240526204435 18 54 0.0 0.0 0.00 0.00 0.00 74 1005.3
20240526204404 18 55 0.0 0.0 0.00 0.00 0.00 74 1005.5
20240526204356 18 75 0.0 0.0 0.00 0.00 0.00 75 1005.5
20240526204334 18 66 0.0 0.0 0.00 0.00 0.00 75 1005.3
20240526204303 18 62 0.0 0.0 0.00 0.00 0.00 75 1005.5
20240526204235 18 75 0.0 0.0 0.00 0.00 0.00 76 1005.5
20240526204201 18 75 0.0 0.0 0.00 0.00 0.00 75 1005.5
20240526203901 18 51 0.0 0.0 0.00 0.00 0.00 75 1005.3
20240526203802 18 52 0.0 0.0 0.00 0.00 0.00 75 1005.3
20240526203700 18 52 0.0 0.0 0.00 0.00 0.00 76 1005.3
20240526203559 18 54 0.0 0.0 0.00 0.00 0.00 76 1005.3
20240526203459 18 54 0.0 0.0 0.00 0.00 0.00 76 1005.3
20240526203437 18 54 0.0 0.0 0.00 0.00 0.00 75 1005.3
20240526203412 18 73 0.0 0.0 0.00 0.00 0.00 75 1005.3
20240526203400 18 54 0.0 0.0 0.00 0.00 0.00 75 1005.3
20240526203331 18 54 0.0 0.0 0.00 0.00 0.00 75 1005.3
20240526203301 18 54 0.0 0.0 0.00 0.00 0.00 75 1005.2
20240526203233 18 54 0.0 0.0 0.00 0.00 0.00 76 1005.3
20240526203157 18 73 0.0 0.0 0.00 0.00 0.00 75 1005.3
20240526202842 18 75 0.0 0.0 0.00 0.00 0.00 75 1005.3
20240526202740 18 75 0.0 0.0 0.00 0.00 0.00 75 1005.3
20240526202638 18 76 0.0 0.0 0.00 0.00 0.00 75 1005.3
20240526202538 18 80 0.0 0.0 0.00 0.00 0.00 76 1005.3
20240526202434 18 82 0.0 0.0 0.00 0.00 0.00 76 1005.5
20240526202415 18 83 0.0 0.0 0.00 0.00 0.00 77 1005.5
20240526202354 18 85 0.0 0.0 0.00 0.00 0.00 76 1005.3
20240526202324 18 85 0.0 0.0 0.00 0.00 0.00 76 1005.3
20240526202247 18 83 0.0 0.0 0.00 0.00 0.00 76 1005.2
20240526202220 18 83 0.0 0.0 0.00 0.00 0.00 76 1005.2
20240526202143 18 83 0.0 0.0 0.00 0.00 0.00 77 1005.5
20240526201831 18 83 0.0 0.0 0.00 0.00 0.00 76 1005.3
20240526201730 18 83 0.0 0.0 0.00 0.00 0.00 76 1005.2
20240526201631 18 83 0.0 0.0 0.00 0.00 0.00 75 1005.3
20240526201532 18 86 0.0 0.0 0.00 0.00 0.00 75 1005.3
20240526201428 18 78 0.0 0.0 0.00 0.00 0.00 76 1005.2
20240526201324 18 78 0.0 0.0 0.00 0.00 0.00 76 1005.2
20240526201225 18 71 0.0 0.0 0.00 0.00 0.00 77 1005.2
20240526201122 18 72 0.0 0.0 0.00 0.00 0.00 77 1005.3
20240526201023 18 72 0.0 0.0 0.00 0.00 0.00 77 1005.2
20240526200932 18 71 0.0 0.0 0.00 0.00 0.00 77 1005.2
20240526200921 18 72 0.0 0.0 0.00 0.00 0.00 77 1005.1
20240526200818 18 75 0.0 0.0 0.00 0.00 0.00 77 1005.1
20240526200717 18 79 0.0 0.0 0.00 0.00 0.00 77 1005.1
20240526200649 18 76 0.0 0.0 0.00 0.00 0.00 76 1005.0
20240526200614 18 72 0.0 0.0 0.00 0.00 0.00 77 1005.1
20240526200514 18 78 0.0 0.0 0.00 0.00 0.00 76 1005.0
20240526200412 18 76 0.0 0.0 0.00 0.00 0.00 76 1005.1
20240526200312 18 66 0.0 0.0 0.00 0.00 0.00 76 1005.1
20240526200206 18 63 0.0 0.0 0.00 0.00 0.00 76 1005.1
20240526200103 18 63 0.0 0.0 0.00 0.00 0.00 77 1005.1
20240526200007 18 20 0.0 0.0 0.00 0.00 0.00 77 1005.1
20240526195929 18 68 0.0 0.0 0.00 0.00 0.00 77 1005.1
20240526195904 18 72 0.0 0.0 0.00 0.00 0.00 77 1005.0
20240526195855 18 104 0.0 0.0 0.00 0.00 0.00 79 1004.9
20240526195832 18 71 0.0 0.0 0.00 0.00 0.00 77 1005.0
20240526195800 18 69 0.0 0.0 0.00 0.00 0.00 78 1005.0
20240526195732 18 68 0.0 0.0 0.00 0.00 0.00 78 1004.9
20240526195703 18 102 0.0 0.0 0.00 0.00 0.00 78 1004.9
20240526195403 18 113 0.0 0.0 0.00 0.00 0.00 79 1004.9
20240526195301 18 114 0.0 0.0 0.00 0.00 0.00 79 1004.9
20240526195202 18 78 0.0 0.0 0.00 0.00 0.00 79 1004.9
20240526195100 18 78 0.0 0.0 0.00 0.00 0.00 79 1004.8
20240526195005 18 94 0.0 0.0 0.00 0.00 0.00 79 1004.8
20240526194929 18 87 0.0 0.0 0.00 0.00 0.00 80 1004.8
20240526194902 18 76 0.0 0.0 0.00 0.00 0.00 80 1004.9
20240526194857 17 76 0.0 0.0 0.00 0.00 0.00 80 1004.9
20240526194831 18 78 0.0 0.0 0.00 0.00 0.00 80 1004.8
20240526194803 18 76 0.0 0.0 0.00 0.00 0.00 79 1004.8
20240526194735 17 76 0.0 0.0 0.00 0.00 0.00 79 1004.8
20240526194703 17 76 0.0 0.0 0.00 0.00 0.00 80 1004.9
20240526194401 17 80 0.0 0.0 0.00 0.00 0.00 80 1004.9
20240526194259 17 76 0.0 0.0 0.00 0.00 0.00 80 1004.8
20240526194158 17 80 0.0 0.0 0.00 0.00 0.00 81 1005.0
20240526194056 17 85 0.0 0.0 0.00 0.00 0.00 82 1004.9
20240526193930 17 75 0.0 0.0 0.00 0.00 0.00 82 1005.0
20240526193906 17 79 0.0 0.0 0.00 0.00 0.00 82 1005.1
20240526193856 17 75 0.0 0.0 0.00 0.00 0.00 82 1005.0
20240526193828 17 78 0.0 0.0 0.00 0.00 0.00 82 1005.0
20240526193755 17 80 0.0 0.0 0.00 0.00 0.00 82 1005.0
20240526193724 17 66 0.0 0.0 0.00 0.00 0.00 82 1005.0
20240526193651 17 79 0.0 0.0 0.00 0.00 0.00 82 1005.1
20240526193337 17 78 0.0 0.0 0.00 0.00 0.00 82 1005.0
20240526193238 17 68 0.0 0.0 0.00 0.00 0.00 82 1005.0
20240526193135 17 90 0.0 1.6 0.00 0.00 0.00 82 1005.0
20240526193033 17 62 0.0 1.6 0.00 0.00 0.00 82 1005.0
20240526192932 17 83 0.0 1.6 0.00 0.00 0.00 82 1005.0
20240526192831 17 96 0.0 1.6 0.00 0.00 0.00 83 1005.0
20240526192731 17 113 0.0 1.6 0.00 0.00 0.00 83 1005.0
20240526192632 17 79 0.0 1.6 0.00 0.00 0.00 83 1005.0
20240526192532 17 73 0.0 1.6 0.00 0.00 0.00 83 1005.0
20240526192431 17 73 0.0 1.6 0.00 0.00 0.00 83 1005.0
20240526192331 17 75 0.0 1.6 0.00 0.00 0.00 84 1004.9
20240526192230 16 78 0.0 0.0 0.00 0.00 0.00 84 1005.0
20240526192131 16 80 0.0 0.0 0.00 0.00 0.00 85 1005.0
20240526192030 16 78 0.0 0.0 0.00 0.00 0.00 85 1005.0
20240526191934 16 82 0.0 0.0 0.00 0.00 0.00 86 1005.0
20240526191930 16 71 0.0 0.0 0.00 0.00 0.00 86 1005.0
20240526191828 16 140 0.0 0.0 0.00 0.00 0.00 86 1005.0
20240526191726 16 80 0.0 0.0 0.00 0.00 0.00 86 1005.1
20240526191623 16 82 0.0 0.0 0.00 0.00 0.00 86 1005.0
20240526191523 16 78 0.0 0.0 0.00 0.00 0.00 86 1005.0
20240526191430 16 79 0.0 0.0 0.00 0.00 0.00 86 1005.0
20240526191422 16 41 0.0 0.0 0.00 0.00 0.00 86 1005.0
20240526191319 16 65 0.0 0.0 0.00 0.00 0.00 86 1005.1
20240526191221 16 63 0.0 0.0 0.00 0.00 0.00 86 1005.0
20240526191117 16 56 0.0 0.0 0.00 0.00 0.00 86 1005.0
20240526191014 16 80 0.0 0.0 0.00 0.00 0.00 86 1005.0
20240526190927 16 152 0.0 0.0 0.00 0.00 0.00 86 1005.0
20240526190915 16 78 0.0 0.0 0.00 0.00 0.00 86 1005.0
20240526190813 16 76 0.0 0.0 0.00 0.00 0.00 86 1005.0
20240526190710 16 76 0.0 0.0 0.00 0.00 0.00 86 1005.0
20240526190609 16 76 0.0 0.0 0.00 0.00 0.00 87 1004.9
20240526190509 16 76 0.0 0.0 0.00 0.00 0.00 87 1004.9
20240526190428 16 76 0.0 0.0 0.00 0.00 0.00 87 1004.9
20240526190408 16 76 0.0 0.0 0.00 0.00 0.00 86 1004.9
20240526190304 16 76 0.0 0.0 0.00 0.00 0.00 86 1004.9
20240526190206 16 76 0.0 0.0 0.00 0.00 0.00 86 1004.8
20240526190103 16 76 0.0 0.0 0.00 0.00 0.00 86 1004.7
20240526190005 16 76 0.0 0.0 0.00 0.00 0.00 86 1004.7
20240526185901 16 76 0.0 0.0 0.00 0.00 0.00 86 1004.7
20240526185802 16 76 0.0 0.0 0.00 0.00 0.00 86 1004.6
20240526185702 16 76 0.0 0.0 0.00 0.00 0.00 86 1004.6
20240526185601 16 78 0.0 0.0 0.00 0.00 0.00 86 1004.7
20240526185501 16 76 0.0 0.0 0.00 0.00 0.00 86 1004.7
20240526185425 16 76 0.0 0.0 0.00 0.00 0.00 86 1004.7
20240526185400 16 76 0.0 0.0 0.00 0.00 0.00 86 1004.7
20240526185258 16 76 0.0 0.0 0.00 0.00 0.00 86 1004.7
20240526185157 16 76 0.0 0.0 0.00 0.00 0.00 86 1004.6
20240526185054 16 76 0.0 0.0 0.00 0.00 0.00 86 1004.7
20240526184928 16 82 0.0 0.0 0.00 0.00 0.00 86 1004.7
20240526184853 16 82 0.0 0.0 0.00 0.00 0.00 86 1004.7
20240526184751 16 80 0.0 0.0 0.00 0.00 0.00 86 1004.7
20240526184650 16 80 0.0 0.0 0.00 0.00 0.00 86 1004.8
20240526184547 16 79 0.0 0.0 0.00 0.00 0.00 86 1004.7
20240526184428 16 82 0.0 0.0 0.00 0.00 0.00 86 1004.7
20240526184345 16 82 0.0 0.0 0.00 0.00 0.00 86 1004.7
20240526184244 16 82 0.0 0.0 0.00 0.00 0.00 85 1004.7
20240526184141 16 82 0.0 0.0 0.00 0.00 0.00 85 1004.7
20240526184042 16 82 0.0 0.0 0.00 0.00 0.00 85 1004.7
20240526183929 16 80 0.0 0.0 0.00 0.00 0.00 85 1004.8
20240526183836 16 80 0.0 0.0 0.00 0.00 0.00 85 1004.8